GFSNW_500_spd_003.txt.gz
Wind_Speed
40 43 50 51 50 47 43 42 40 40 37 30 26 22 16 7 8 7 8 6 6 4 8 7 11 12 9 7 7 6 6 4 3 2 4 7 10 13 16 19 20 20 18 12
41 45 50 51 51 48 44 42 41 40 36 31 27 21 10 9 9 8 9 5 5 5 7 10 12 11 11 10 10 7 4 2 1 0 2 5 11 16 20 23 22 22 19 19
42 47 50 51 51 49 47 44 42 40 34 32 27 19 15 12 9 10 11 8 9 7 10 11 14 13 13 12 10 6 3 4 5 5 8 11 16 20 24 26 27 24 21 22
42 46 50 50 50 50 47 44 41 38 35 31 25 21 18 15 13 11 11 10 12 11 11 12 14 15 14 13 10 8 7 8 9 9 12 16 19 21 23 25 29 31 24 26
41 45 47 51 50 50 47 46 42 39 36 32 29 25 22 18 18 14 14 13 15 14 15 14 15 15 14 14 12 12 12 13 13 13 15 19 21 25 27 28 29 31 29 32
39 43 45 49 51 50 48 46 42 40 36 33 32 26 23 24 19 18 16 17 16 14 12 13 15 18 19 18 16 17 16 16 16 17 20 23 27 29 31 32 33 36 35 37
35 40 43 46 49 51 48 44 43 40 38 36 32 28 29 27 21 23 18 16 16 16 19 21 21 22 21 20 19 19 19 20 20 22 25 28 31 33 34 36 36 38 39 38
33 35 39 42 45 46 46 47 45 41 39 38 35 33 33 30 24 23 18 16 21 23 23 24 24 25 23 22 21 21 22 24 26 28 30 32 36 38 36 39 39 38 40 41
33 32 32 35 40 40 43 46 43 41 40 38 36 37 36 30 26 25 22 22 24 24 25 27 28 27 25 26 24 25 27 29 30 33 35 38 42 44 43 43 40 41 39 40
33 31 31 31 32 36 40 42 41 40 39 38 38 38 34 31 32 30 28 27 27 27 28 30 32 32 32 31 29 30 32 33 35 37 39 40 42 46 44 43 46 46 43 45
33 31 31 30 30 30 33 37 39 40 40 40 40 39 35 36 35 32 31 31 30 32 33 33 34 36 37 36 35 34 36 38 38 41 43 45 47 48 47 46 49 48 47 48
35 33 31 30 30 31 32 33 35 37 38 39 41 40 39 39 38 34 35 37 33 37 36 35 38 39 39 38 39 39 41 41 42 44 46 48 52 51 51 52 53 50 51 53
37 34 32 31 31 31 31 33 34 34 35 37 40 39 38 38 39 37 37 38 37 37 37 40 41 41 40 40 40 41 43 45 47 50 50 52 57 55 53 54 53 52 53 55
39 37 35 33 31 31 32 32 33 33 34 36 36 37 37 38 40 39 37 38 39 38 39 41 42 42 43 42 43 45 40 45 46 50 50 53 54 53 56 55 53 55 58 58
39 39 37 36 34 33 32 33 34 34 34 35 34 35 35 35 36 37 38 37 38 39 39 40 41 43 43 45 46 45 40 46 48 49 50 53 51 54 54 53 56 58 58 57
39 39 39 38 37 36 34 34 34 33 33 35 34 34 33 35 36 35 36 36 37 37 38 40 42 42 43 47 47 43 41 42 44 52 53 50 53 55 52 56 58 58 56 56
39 39 39 39 37 36 35 34 31 31 32 34 36 36 34 35 36 34 32 33 34 35 37 41 41 41 43 48 49 39 42 45 49 49 48 51 52 52 54 58 57 55 57 61
37 36 38 37 37 36 35 33 32 33 35 34 37 38 35 33 33 29 32 33 34 33 32 39 39 43 46 50 43 45 47 48 48 48 49 53 53 55 59 60 57 58 62 65
35 35 34 38 39 37 35 36 35 34 36 35 36 36 36 33 34 35 34 34 34 37 42 43 45 47 49 46 47 48 48 48 48 49 51 51 53 59 61 59 61 64 67 70
34 36 35 34 37 38 37 38 37 37 38 39 40 39 40 40 40 40 42 41 43 46 46 47 50 52 50 45 46 49 50 50 51 53 51 52 56 58 59 62 65 68 70 72
35 35 31 29 29 34 37 39 36 36 35 35 36 34 37 40 40 40 42 44 47 49 49 52 53 51 42 42 44 46 50 52 51 48 52 56 58 59 60 63 67 70 71 69
36 35 33 33 33 32 37 36 36 36 35 37 36 34 35 39 41 43 44 45 46 46 45 49 50 48 45 46 48 48 47 45 47 53 56 58 60 60 63 66 68 69 65 63
41 39 38 39 38 38 39 38 37 38 38 38 37 36 35 35 37 39 40 42 45 47 50 51 50 47 48 51 53 52 52 53 54 56 61 63 63 65 66 68 66 62 61 64
45 48 47 46 46 46 43 43 43 42 40 40 41 42 43 43 44 44 46 49 53 56 55 52 50 51 54 56 55 54 54 55 59 63 65 64 64 65 65 61 59 61 63 65
46 45 47 50 51 50 49 47 45 47 49 49 50 51 48 47 47 49 53 54 54 53 54 54 55 57 59 58 57 58 59 61 60 60 61 61 60 58 57 58 61 64 67 70
43 44 44 45 45 48 49 49 47 48 51 53 52 51 53 55 53 50 50 49 50 54 57 57 58 59 57 56 55 55 55 55 57 57 56 55 56 57 57 61 65 68 69 67
43 41 41 43 45 46 46 51 55 52 48 46 49 53 53 51 51 49 49 49 51 54 54 50 46 45 47 49 50 51 51 50 50 51 52 55 58 61 64 64 64 63 63 64

GFSNW_500_spd_006.txt.gz
Wind_Speed
41 38 38 44 49 47 46 46 46 44 40 36 32 28 24 17 10 5 3 4 3 5 6 7 12 15 15 13 11 10 10 9 9 7 4 2 1 5 8 10 12 14 17 19
41 40 40 46 51 47 46 47 48 45 41 37 32 28 21 15 8 3 3 3 3 3 6 11 16 17 16 14 13 13 10 8 6 5 4 3 3 7 10 13 15 17 18 21
41 41 43 49 53 50 48 49 49 46 43 37 34 28 20 13 8 4 4 5 5 5 8 14 17 17 15 14 14 12 11 8 6 6 6 6 10 11 12 15 17 19 21 22
40 43 46 51 55 52 50 50 49 45 41 38 33 27 19 15 10 6 5 6 5 6 8 12 15 15 16 15 16 13 12 10 9 8 10 12 13 15 19 20 23 24 25 27
40 45 48 52 55 55 51 49 48 46 42 39 33 26 21 16 14 10 8 7 6 9 9 11 15 15 17 16 17 16 15 14 13 13 13 15 17 18 21 24 27 29 31 32
40 44 49 52 55 56 54 49 47 45 42 38 34 29 25 19 17 15 11 9 9 11 11 13 17 20 22 21 22 21 19 18 18 18 19 21 22 23 25 29 29 31 34 36
39 43 48 53 54 53 55 52 48 44 41 38 34 30 27 26 22 19 16 13 11 11 16 19 19 21 23 25 24 23 22 22 22 22 24 25 27 26 30 32 32 35 37 38
39 42 47 50 52 52 51 52 47 44 42 40 37 35 35 30 24 21 19 18 15 17 20 22 21 22 26 26 26 26 26 25 25 26 27 29 31 31 34 35 36 39 40 44
38 40 44 48 50 50 50 50 47 45 44 43 41 39 36 32 28 25 25 23 22 20 21 24 25 25 27 28 29 30 29 29 30 30 32 34 34 35 36 38 39 41 43 45
37 37 41 44 46 48 49 48 46 44 44 42 41 39 37 33 30 31 29 28 27 26 24 27 29 30 30 31 31 32 33 34 35 35 37 37 39 40 41 42 43 48 49 48
35 35 35 38 41 44 46 45 44 43 43 42 41 40 38 35 33 33 32 32 30 30 30 31 32 34 33 34 34 35 38 40 38 40 40 41 41 43 44 45 45 49 52 49
34 33 33 34 36 39 41 41 41 41 42 41 41 40 39 38 37 38 38 38 36 36 34 35 36 38 39 38 39 37 39 40 42 41 40 41 44 45 46 46 48 55 54 53
36 33 31 31 31 32 33 34 35 38 39 41 42 42 42 41 41 41 40 41 40 39 38 38 38 39 39 41 41 43 41 43 44 43 41 42 45 46 50 52 57 60 56 55
36 34 32 31 30 30 30 30 30 32 33 35 37 39 40 40 40 39 40 40 37 38 39 40 39 39 41 40 42 44 38 44 43 47 45 47 46 47 51 56 60 57 55 56
37 35 34 33 32 31 30 30 30 30 31 31 33 35 36 36 36 37 37 39 39 37 36 36 37 39 39 40 42 39 34 39 41 41 42 43 43 47 52 55 56 55 55 54
38 38 36 34 33 32 32 32 33 32 31 31 31 33 33 35 35 34 34 33 32 32 31 33 35 35 38 40 38 30 30 34 39 41 42 43 47 51 54 55 55 54 54 55
38 38 37 36 36 35 35 33 31 32 32 33 34 34 32 33 33 32 29 31 29 30 30 30 31 31 36 38 38 28 34 38 40 42 44 48 50 53 54 53 53 53 54 56
37 36 35 35 36 37 37 35 33 32 33 34 37 37 31 29 29 30 28 29 30 29 32 33 32 35 37 42 34 40 40 40 42 45 47 50 53 54 54 54 55 56 57 60
38 38 39 39 39 38 36 35 35 35 36 37 36 33 30 28 29 30 30 31 33 35 36 38 39 42 44 41 44 45 47 48 47 46 48 49 51 52 53 52 53 57 60 62
38 38 37 36 35 35 35 36 37 37 38 38 36 33 35 33 32 32 33 34 36 39 40 43 46 47 45 44 46 46 47 47 45 46 49 50 50 47 48 51 56 60 62 65
35 36 36 35 35 35 36 37 38 38 37 36 33 33 34 33 32 29 29 32 35 37 38 42 44 43 41 42 39 40 42 43 45 47 49 50 51 53 55 56 59 63 66 68
35 34 34 33 34 35 34 32 32 32 33 34 33 29 28 30 31 35 37 37 37 39 38 40 41 37 38 40 45 48 48 47 47 49 51 52 52 54 56 60 63 64 66 68
36 35 35 34 33 34 35 36 36 35 34 34 32 32 32 34 37 38 39 41 42 42 43 45 44 43 46 48 48 50 49 50 51 53 55 55 56 58 58 59 61 64 66 64
42 40 39 40 40 41 42 40 38 38 37 37 38 38 40 40 40 41 41 44 45 47 49 48 48 50 53 54 52 51 53 54 55 57 58 58 57 56 57 60 64 63 61 62
41 43 45 46 45 44 44 45 45 46 46 45 45 47 48 47 48 47 49 51 51 52 53 53 53 52 50 53 53 52 54 57 57 55 54 53 54 59 61 59 58 60 65 69
46 47 44 45 44 44 46 47 48 49 50 52 53 52 52 53 54 55 55 53 50 51 53 53 52 50 49 53 57 56 51 47 48 49 52 57 55 53 55 59 64 65 65 65
44 43 43 42 41 40 42 43 44 45 46 48 48 50 51 50 47 46 45 43 46 47 49 51 51 49 46 43 42 43 44 48 53 52 51 53 56 57 57 59 60 61 61 61

GFSNW_500_spd_009.txt.gz
Wind_Speed
42 37 39 37 43 47 49 50 46 43 41 41 38 33 27 22 18 12 7 5 4 8 9 11 15 16 16 16 15 15 14 13 14 10 10 7 5 3 2 5 8 10 13 13
42 38 40 39 46 49 51 51 48 45 43 41 38 33 27 22 16 9 5 4 5 7 10 14 16 18 19 18 15 14 15 14 13 12 10 8 8 6 7 7 8 11 15 16
40 40 41 41 48 51 53 53 50 47 44 41 37 33 27 21 15 9 6 3 4 6 10 14 17 19 19 16 16 17 15 14 13 11 10 11 12 11 11 11 12 13 17 21
40 42 41 43 49 53 54 53 50 46 45 42 38 33 27 22 15 9 5 2 4 6 8 13 17 18 17 17 18 18 16 16 13 12 14 15 16 16 17 16 18 19 20 22
40 42 42 44 51 54 53 53 50 47 44 42 40 35 28 23 16 10 8 6 3 8 9 12 15 18 19 19 18 20 19 18 18 18 18 18 19 21 22 21 23 24 24 25
41 43 41 45 53 55 53 53 51 49 46 45 41 35 29 24 18 12 11 10 7 7 10 11 15 19 22 23 23 24 24 23 23 22 23 24 23 25 27 26 26 29 29 29
42 41 40 45 53 55 53 51 50 49 47 45 41 36 31 26 21 18 15 13 11 11 12 16 18 19 20 23 26 26 27 28 27 27 28 31 26 28 30 31 30 32 34 34
41 38 39 44 53 56 53 51 50 48 47 44 43 38 33 30 26 22 18 18 16 15 15 17 19 20 21 24 27 28 29 30 32 33 32 34 30 29 34 36 34 35 38 38
39 35 38 44 50 54 56 54 50 48 46 45 43 39 36 35 29 26 24 24 22 21 20 19 20 23 24 25 26 29 31 33 35 36 38 39 34 35 38 40 38 40 41 41
36 35 37 42 47 46 52 54 52 49 47 46 44 41 39 36 31 29 28 28 26 26 25 25 25 25 27 28 27 28 34 37 39 41 43 43 39 40 41 42 43 42 43 44
33 33 36 40 44 51 51 52 52 51 49 47 45 42 40 37 35 35 33 32 31 31 31 31 30 32 32 32 32 32 35 39 40 42 44 47 42 45 45 44 45 45 46 45
30 32 35 39 43 46 47 48 48 48 46 44 43 42 42 40 39 38 38 36 35 35 35 35 35 37 37 37 37 36 37 39 41 42 42 43 44 47 45 46 48 47 47 46
34 30 30 33 38 41 43 45 45 45 45 44 44 43 42 41 40 40 40 39 39 40 40 40 40 41 41 41 41 41 40 41 43 42 41 42 45 46 45 47 47 47 47 51
34 33 33 32 32 34 35 38 41 43 43 43 43 43 43 42 41 42 43 42 42 42 42 41 41 41 43 42 43 44 41 39 39 43 41 43 43 42 43 45 46 48 51 52
35 33 31 30 30 30 30 32 34 35 38 38 39 41 40 40 40 40 41 40 39 38 38 39 40 42 42 43 44 40 35 37 41 41 40 42 41 42 45 47 48 50 53 54
34 33 32 29 28 28 28 28 29 29 30 31 33 33 33 33 34 34 34 33 34 34 33 36 37 33 37 42 40 28 31 34 38 39 39 39 42 44 46 48 50 52 53 55
33 31 30 30 30 30 30 28 27 28 29 29 30 30 31 30 31 31 31 31 30 32 33 34 33 31 36 38 34 22 28 31 34 38 42 44 44 48 50 50 50 52 53 55
37 35 34 33 32 32 30 30 30 29 30 32 33 33 29 28 29 30 30 31 31 33 33 34 32 35 38 41 30 36 37 41 42 44 47 48 50 51 51 50 49 50 53 54
38 38 37 36 37 36 35 34 33 33 33 34 34 33 30 28 28 30 31 33 33 33 35 34 36 39 40 37 38 40 43 46 49 51 50 47 47 48 49 50 52 53 54 52
38 36 36 38 36 34 34 34 34 35 35 36 35 33 33 31 29 29 31 33 36 37 35 36 39 39 38 41 42 42 45 46 46 47 46 47 47 47 48 51 51 51 50 55
35 38 41 38 37 37 37 39 39 39 38 37 36 32 31 29 31 31 34 36 37 38 38 37 37 35 35 37 38 38 38 39 41 45 47 47 47 48 50 52 53 57 58 58
35 35 35 35 36 36 39 41 38 37 36 34 32 31 32 34 34 35 36 35 36 38 38 41 41 41 39 39 41 44 45 46 48 48 49 48 51 52 53 53 53 56 60 61
34 35 35 36 37 40 41 40 38 37 35 33 30 29 30 34 36 37 37 39 41 41 43 45 47 45 47 48 49 50 52 53 55 57 56 53 52 53 55 51 52 58 61 62
37 37 37 37 39 41 41 38 36 35 34 35 36 34 35 34 36 38 41 43 45 47 48 49 48 50 54 56 58 59 58 57 56 54 53 53 55 54 52 53 60 59 59 60
39 40 41 41 41 41 41 41 40 40 40 40 41 42 42 42 44 46 48 50 52 54 56 55 56 57 58 55 55 54 52 52 53 55 56 53 51 54 60 61 59 61 60 63
41 43 44 43 42 44 46 47 47 47 47 47 48 48 50 52 52 54 55 56 56 54 51 50 49 47 47 49 52 55 55 54 52 52 52 52 54 56 59 59 59 62 64 64
45 46 50 49 46 47 47 48 48 49 50 50 51 52 50 52 54 54 51 51 50 45 41 41 41 42 43 45 45 45 46 47 49 53 56 59 61 60 60 63 59 59 63 64

GFSNW_500_spd_012.txt.gz
Wind_Speed
57 51 46 44 41 39 42 48 48 46 41 39 36 33 30 22 20 17 12 8 8 10 11 12 14 15 14 14 15 15 13 16 15 13 13 12 10 9 8 7 8 9 9 8
55 50 47 44 44 38 47 51 51 47 43 41 38 36 32 25 19 15 8 6 6 9 10 13 16 16 15 15 16 15 15 15 16 15 14 12 12 10 9 10 11 11 13 14
50 47 45 45 44 41 51 55 54 50 44 41 39 37 32 25 20 13 9 6 6 9 12 15 16 17 18 17 16 15 17 15 15 15 15 15 13 13 14 15 16 17 19 19
47 45 43 45 43 44 53 59 55 48 44 42 41 38 32 26 19 14 10 5 5 9 10 13 15 18 19 18 17 17 17 17 17 16 16 16 17 17 19 21 21 23 23 23
46 44 42 44 43 46 55 60 54 49 43 42 41 39 33 26 20 15 10 5 4 6 8 10 13 17 19 19 18 19 20 19 19 20 19 20 21 21 23 25 27 28 29 28
46 42 43 43 42 49 56 61 55 48 46 44 43 38 31 26 22 17 13 8 6 5 8 9 12 15 18 19 21 22 22 23 24 25 25 27 27 24 28 30 31 33 33 34
43 42 42 41 40 50 55 60 54 49 47 46 41 37 33 30 25 21 17 13 10 9 8 11 14 15 18 20 21 22 24 27 30 30 31 35 28 29 32 36 37 36 36 39
42 39 40 39 41 51 56 58 55 50 47 44 43 40 34 32 28 24 21 18 15 14 13 12 13 16 17 18 19 23 26 29 32 34 35 37 36 33 37 40 40 38 42 44
39 39 38 37 42 52 57 56 54 51 47 45 43 40 35 33 30 27 25 23 21 19 18 18 16 17 17 21 22 23 25 30 34 37 40 42 40 38 41 44 46 42 46 46
37 35 36 37 43 54 55 54 52 50 47 46 44 41 36 35 33 31 30 28 26 24 24 23 22 23 22 22 23 25 29 32 34 37 42 44 43 44 44 47 47 50 50 49
36 34 34 37 43 51 52 51 51 49 47 45 44 41 38 36 36 35 34 32 30 29 29 29 28 29 28 28 28 28 31 34 36 39 42 45 43 45 46 48 49 50 50 50
34 30 31 36 41 43 45 48 51 49 46 45 44 41 40 39 39 38 38 36 34 34 34 34 34 34 33 33 35 34 37 36 39 41 41 43 46 47 48 48 48 48 49 50
34 34 30 37 37 37 38 45 47 48 47 45 44 42 41 41 41 40 38 38 38 39 39 38 39 40 40 40 41 41 40 41 42 41 39 42 46 48 46 47 47 47 47 48
33 32 32 37 47 50 38 37 42 45 46 45 44 43 43 42 41 40 40 40 40 41 42 42 43 44 45 44 44 44 41 39 38 42 39 43 43 42 44 45 45 45 47 48
28 28 27 31 38 44 44 38 40 39 41 41 41 42 41 41 40 40 41 42 42 42 42 42 42 43 42 43 43 40 31 36 39 42 40 42 40 40 40 41 42 46 49 51
33 30 27 28 30 35 37 37 37 36 36 36 37 37 37 38 38 39 39 39 38 39 37 36 37 34 37 42 41 29 30 37 40 40 39 39 39 39 42 45 48 51 54 55
35 32 28 26 25 25 28 29 28 27 28 30 33 33 33 32 32 31 30 30 30 32 32 32 31 31 35 38 38 26 33 38 38 39 42 42 44 47 49 51 53 53 53 54
29 30 29 29 27 26 25 25 26 26 27 28 27 28 25 26 26 27 28 28 30 31 32 33 34 38 40 40 33 35 36 38 40 43 45 47 49 52 54 53 49 49 51 52
31 29 28 27 27 26 25 25 26 27 28 28 27 27 26 28 27 28 28 30 31 33 34 33 36 36 37 37 37 37 38 41 44 47 49 50 50 49 48 47 49 52 53 52
29 28 28 27 26 25 27 28 29 30 30 30 29 30 30 28 28 29 32 33 35 38 35 37 38 38 39 40 40 40 40 42 44 47 48 48 49 49 49 51 53 54 55 56
35 34 33 31 31 33 34 35 36 35 36 36 35 31 30 29 29 30 34 37 39 40 40 39 39 36 36 37 36 39 42 44 45 47 49 51 52 52 55 57 57 57 58 57
38 36 36 35 36 36 39 41 39 39 37 36 34 31 31 32 32 36 39 39 41 43 41 40 40 39 38 40 44 46 47 47 47 49 51 53 56 57 58 58 58 57 55 55
39 38 36 35 38 41 44 43 41 40 37 34 32 32 32 34 38 38 37 39 40 40 41 43 44 43 44 46 48 49 50 53 56 59 61 61 61 60 56 55 54 50 53 58
31 31 31 33 36 36 36 34 34 35 35 35 35 36 36 35 36 35 36 39 41 44 45 44 45 48 52 54 57 60 63 65 64 63 60 57 55 55 51 50 51 53 57 58
26 28 32 33 34 35 34 35 35 36 37 37 39 40 39 37 39 40 43 45 47 49 49 52 55 57 58 59 59 58 57 55 55 55 54 54 51 49 50 53 56 59 63 66
31 30 31 32 34 37 38 40 40 39 40 42 43 44 45 45 46 49 50 52 54 54 54 55 56 57 56 55 54 52 51 52 53 52 49 49 51 53 55 55 56 58 60 62
36 36 36 36 38 39 41 43 44 45 45 46 49 50 50 52 53 52 51 51 51 51 52 53 53 53 49 46 46 48 47 46 47 49 51 52 54 58 61 58 54 54 57 58

GFSNW_500_spd_015.txt.gz
Wind_Speed
83 77 70 62 55 49 44 41 38 41 48 45 38 34 30 26 22 21 17 15 13 15 16 17 19 19 18 16 17 18 17 16 17 17 16 14 12 11 11 10 9 9 10 8
81 75 70 64 57 50 47 43 44 47 51 45 39 36 32 28 23 21 16 11 11 11 12 15 15 16 16 15 15 15 14 13 16 16 15 14 13 13 13 13 13 12 12 15
80 73 68 61 57 53 51 45 49 53 54 46 41 38 35 29 25 21 14 9 6 8 10 13 15 17 16 16 15 15 15 14 14 16 17 17 15 16 17 16 15 16 16 19
73 70 64 59 57 55 53 48 52 56 53 47 43 41 37 32 24 18 13 6 4 7 8 11 14 16 17 17 17 16 15 15 17 19 18 18 18 19 19 19 21 23 23 24
73 67 60 57 54 56 54 52 56 59 53 47 44 43 39 34 26 19 12 6 3 4 9 10 12 13 15 16 17 17 16 17 19 20 20 21 22 21 21 24 26 27 31 29
64 61 56 53 54 54 52 54 57 59 54 49 46 43 38 33 27 20 14 9 4 4 5 8 8 9 11 14 17 17 18 18 21 23 24 26 27 20 26 29 31 34 35 36
59 54 51 51 50 50 49 55 58 59 54 50 45 42 39 34 27 22 17 12 8 7 5 5 8 8 11 13 16 17 18 21 24 26 28 32 27 28 31 35 37 39 40 41
53 53 49 46 46 46 48 54 57 59 54 49 46 44 39 34 29 25 20 16 14 11 9 8 7 6 9 12 14 16 19 22 25 28 30 32 33 33 35 39 41 43 44 47
50 47 45 42 42 43 45 51 57 58 53 49 46 42 39 35 30 27 23 19 18 16 13 13 12 11 10 11 12 16 20 23 25 27 31 32 33 36 38 42 44 44 47 49
46 43 40 40 40 41 45 46 55 57 52 49 46 43 38 33 31 29 26 23 22 20 19 18 17 17 17 17 18 19 21 24 26 28 32 35 35 37 39 41 45 46 48 49
43 40 40 38 38 40 46 49 55 54 52 48 45 43 39 34 32 30 29 27 25 25 24 23 23 24 24 23 23 24 26 29 29 32 35 38 39 40 43 45 47 48 49 48
39 39 36 37 36 39 42 47 50 53 50 47 44 41 39 36 36 34 32 31 29 28 27 29 30 30 29 30 32 31 32 33 36 36 36 39 42 44 46 46 47 47 47 47
37 36 34 34 33 35 34 41 40 41 48 47 44 42 39 37 36 36 34 32 30 31 32 32 33 35 35 36 37 37 37 39 39 39 36 40 44 44 44 44 44 44 45 46
33 32 30 31 31 35 42 41 36 37 45 44 44 42 41 39 38 37 35 34 34 35 36 36 36 38 39 40 42 42 39 36 36 38 38 41 40 39 40 41 42 42 43 43
34 33 27 28 34 41 33 35 39 37 38 42 41 41 40 39 39 38 38 38 38 38 38 38 39 40 41 43 43 38 28 35 40 41 38 39 37 37 39 39 39 41 43 46
29 32 28 33 40 44 44 39 38 36 35 37 38 39 38 38 39 39 38 38 38 38 39 40 40 38 39 42 39 27 30 35 37 38 39 40 40 42 42 44 45 47 49 52
26 29 26 27 40 35 34 36 34 34 31 31 32 33 33 34 35 35 35 35 36 38 37 36 35 33 36 37 35 32 32 35 38 40 42 42 43 44 46 47 49 51 52 51
30 29 30 30 31 32 30 28 28 28 29 31 31 32 30 29 29 30 31 31 32 32 32 32 32 35 36 38 34 34 34 36 38 40 43 44 46 48 49 48 48 49 49 51
28 31 31 29 27 26 25 26 27 29 30 29 27 24 23 26 24 24 25 27 29 31 31 32 33 35 38 36 34 35 36 38 39 41 42 43 43 45 47 48 51 53 55 56
29 29 27 26 26 25 24 25 26 25 25 25 23 22 23 22 21 23 26 28 30 34 36 38 39 40 39 37 37 38 38 39 39 39 42 45 47 49 51 52 53 54 56 59
25 23 25 24 24 24 24 25 26 26 27 25 23 22 22 22 25 27 31 34 35 38 39 40 42 42 38 38 38 38 38 39 40 43 46 48 49 51 54 57 60 62 61 59
30 30 27 25 25 24 27 29 29 29 29 28 26 25 26 27 29 32 35 38 42 42 40 41 41 38 37 37 38 39 41 44 46 48 50 53 56 59 60 61 59 58 58 59
27 26 27 27 28 33 36 34 32 31 30 28 27 30 31 33 35 35 34 36 37 38 40 40 37 37 39 42 44 46 49 51 53 56 59 62 62 59 57 56 57 58 57 53
32 32 33 35 38 37 36 32 31 31 33 34 33 32 32 32 33 35 36 38 39 41 40 39 40 44 47 50 53 56 59 61 63 64 64 64 62 59 58 58 57 54 52 53
35 34 36 37 37 34 30 29 28 27 28 29 30 31 33 35 36 37 38 40 42 42 43 45 48 51 53 56 58 60 61 61 61 60 60 59 56 56 56 55 55 55 55 56
27 26 27 25 25 27 27 27 28 29 31 32 34 35 36 36 39 41 43 43 44 46 50 52 54 55 56 57 58 58 58 57 55 53 53 54 52 53 54 56 58 61 60 58
28 29 31 31 30 29 29 31 32 33 35 36 38 40 41 43 44 45 44 46 48 49 49 50 52 53 52 52 52 50 48 49 50 54 57 59 60 58 54 53 52 50 48 50

GFSNW_500_spd_021.txt.gz
Wind_Speed
84 81 76 71 65 67 62 63 59 54 47 45 35 31 32 30 30 27 25 23 21 18 17 15 14 14 17 16 15 17 19 19 21 17 19 19 19 19 20 19 19 16 16 15
90 87 83 75 70 67 65 64 63 56 50 48 38 35 37 37 35 30 27 25 21 18 16 15 16 18 16 18 19 21 20 21 22 22 21 19 18 18 18 19 19 17 18 14
90 93 91 82 75 72 73 71 67 60 52 48 42 40 40 41 38 34 30 27 22 19 17 17 19 22 23 23 24 24 24 22 21 19 15 17 17 18 19 20 18 17 18 20
91 94 94 90 79 78 80 75 69 59 53 54 45 42 43 43 41 36 32 27 21 17 17 19 21 21 21 22 22 22 21 19 18 18 17 17 18 18 20 20 18 23 17 26
97 98 97 94 89 86 81 76 70 63 55 54 49 48 50 45 41 36 33 26 21 18 17 17 17 19 19 18 19 19 19 18 18 18 17 17 19 19 19 20 21 24 25 29
103 100 95 95 88 86 81 76 69 64 58 57 52 50 53 47 44 38 36 29 22 18 15 15 15 14 14 16 18 19 20 19 19 17 16 18 17 17 20 23 24 28 31 31
101 97 97 98 83 84 80 76 73 68 60 56 54 55 53 49 44 39 36 30 23 15 12 10 11 12 11 13 16 19 18 19 19 16 19 21 17 19 23 26 27 31 36 37
88 97 97 93 76 84 81 76 70 68 62 56 58 55 55 50 47 43 38 30 24 18 12 8 7 7 10 11 12 13 15 17 18 19 20 21 20 22 23 27 28 35 36 39
80 96 87 80 75 81 73 73 70 68 61 58 56 59 57 55 49 43 39 33 27 21 16 11 7 6 6 6 7 10 12 14 16 17 18 19 20 21 23 26 30 34 35 38
87 83 85 81 77 73 70 70 68 69 60 57 58 59 59 54 51 46 38 33 29 24 20 15 12 9 7 6 6 8 9 11 13 16 18 20 23 25 27 31 36 38 40 43
84 84 77 72 70 68 63 63 63 57 58 56 57 61 58 56 53 47 40 36 33 28 23 19 16 13 12 11 11 12 14 17 18 21 23 27 28 32 33 36 39 41 43 45
59 64 76 72 68 61 58 55 57 53 54 55 57 58 58 55 53 47 41 38 34 31 29 24 20 18 16 16 17 18 21 23 25 26 29 33 35 36 39 41 42 43 43 43
61 62 62 61 57 53 52 48 50 51 51 54 56 57 58 55 52 46 44 40 36 32 32 29 26 24 22 22 23 23 26 28 29 31 33 36 39 41 43 43 43 42 43 44
60 57 57 55 53 51 45 43 46 48 48 53 54 53 55 53 50 47 44 40 38 36 35 32 30 29 27 28 30 30 32 34 35 36 36 40 41 45 43 42 43 42 43 45
57 54 51 48 46 44 39 41 43 44 43 49 48 50 52 49 47 44 43 41 40 38 36 35 34 33 33 34 35 36 36 38 37 39 41 40 42 42 40 42 43 44 44 45
51 48 45 43 43 44 37 36 37 39 40 41 46 48 48 47 45 43 40 39 39 37 36 36 36 36 38 39 40 40 40 39 40 41 41 41 41 42 44 44 44 44 45 46
45 44 43 42 40 36 37 34 33 34 36 38 39 43 45 44 41 40 39 38 37 37 38 38 39 40 42 42 43 41 39 38 39 37 39 42 42 45 45 45 45 46 46 46
40 40 39 39 38 34 34 35 35 35 38 34 36 41 44 43 40 40 40 39 39 40 40 41 41 42 43 45 42 39 37 37 37 39 40 43 45 45 45 46 46 45 45 46
38 37 38 39 37 37 40 43 45 33 33 32 33 34 36 40 40 39 39 39 40 41 41 41 41 42 44 41 38 36 36 38 40 43 43 43 44 45 45 45 46 46 48 50
38 39 37 33 42 27 36 36 40 41 37 35 33 30 32 35 35 36 38 38 39 40 39 40 43 44 41 36 34 36 39 42 43 44 46 45 45 45 45 44 46 49 53 56
36 37 37 41 35 29 41 42 40 41 41 37 34 34 32 32 34 35 38 39 41 42 43 44 45 42 34 34 37 38 42 46 45 43 43 43 42 43 45 48 52 55 58 61
34 40 31 34 36 38 35 41 44 39 34 33 31 30 29 30 32 34 36 37 39 43 41 41 42 37 34 36 39 40 42 43 43 42 42 43 45 48 51 54 57 59 60 58
30 34 35 32 31 31 35 35 27 25 21 21 23 25 28 29 30 31 33 36 38 39 41 41 39 36 38 40 40 40 41 41 41 43 45 47 50 52 54 57 58 55 50 48
26 26 28 30 34 30 29 28 24 21 20 22 23 25 27 28 29 32 35 38 40 42 42 40 38 39 38 40 41 41 42 44 45 47 49 52 53 57 57 53 48 47 49 52
27 24 26 29 27 24 25 25 24 24 23 24 26 29 31 32 35 36 39 41 43 43 40 35 36 39 40 40 42 45 47 48 50 52 54 56 56 53 49 47 49 51 55 57
25 25 26 26 25 26 28 26 26 26 28 31 32 32 34 36 39 41 41 40 39 36 37 40 41 42 44 46 47 49 52 53 55 56 56 54 50 47 49 51 54 57 59 61
26 28 28 29 29 29 29 31 34 32 33 34 35 38 39 38 37 36 36 37 37 38 40 43 46 47 49 50 50 52 54 55 55 53 49 48 49 52 54 56 59 61 62 62

GFSNW_500_spd_024.txt.gz
Wind_Speed
94 86 81 75 72 67 62 53 50 56 57 56 51 47 31 29 28 27 24 25 18 22 18 16 14 14 12 18 18 19 20 21 21 11 17 12 16 16 16 20 18 21 16 15
94 91 85 78 73 69 62 56 57 60 60 56 51 45 33 35 32 32 29 26 26 25 25 22 21 21 24 14 19 20 21 17 17 16 16 13 16 17 18 20 17 15 16 13
98 93 89 83 76 70 62 61 64 62 57 56 55 43 39 38 34 36 33 29 27 26 23 20 20 22 19 17 20 20 23 19 20 19 13 18 13 19 19 19 17 15 16 16
90 90 92 88 81 74 69 69 63 64 58 57 57 47 44 41 39 41 37 32 30 26 23 21 19 23 20 21 21 24 24 23 23 21 18 22 23 19 18 19 17 20 15 19
94 90 90 91 87 82 78 63 64 63 60 57 55 47 44 44 41 43 37 33 31 26 24 22 20 23 20 20 21 21 20 21 20 18 20 20 20 18 18 19 18 20 21 24
98 100 92 92 90 93 80 65 68 66 64 61 53 50 47 46 45 43 36 31 31 27 28 24 20 19 18 21 18 20 20 21 20 20 19 19 17 15 18 18 20 23 26 26
94 107 103 95 93 91 80 69 72 71 66 63 54 51 51 46 48 38 41 35 33 34 23 19 19 18 18 19 19 21 20 22 21 21 19 19 17 15 17 19 22 27 30 33
89 107 107 97 88 81 84 83 73 62 71 59 57 54 52 46 49 35 43 40 40 29 23 19 17 16 18 18 17 18 20 21 20 22 21 18 17 18 17 22 24 29 30 31
83 107 102 102 90 85 85 79 74 64 67 55 54 55 55 52 53 44 50 43 38 32 25 19 16 13 13 14 14 14 15 17 19 18 19 20 19 18 19 21 25 26 28 32
80 106 100 96 92 83 84 70 55 54 64 52 57 54 57 52 60 52 47 44 41 34 27 22 18 14 12 10 9 11 13 14 14 14 15 14 17 16 21 24 27 31 33 35
84 102 100 86 89 88 77 67 58 40 57 61 54 51 54 55 55 53 49 46 43 36 30 26 21 18 15 12 12 13 12 12 12 15 16 19 21 24 25 28 31 33 36 40
98 103 90 91 86 82 61 52 69 45 31 46 61 55 55 57 60 55 48 44 40 35 33 30 25 22 19 17 15 16 17 16 17 18 21 24 27 27 30 32 34 38 40 41
92 91 74 86 82 70 53 36 50 72 57 47 56 55 53 58 56 55 51 49 45 39 37 32 31 27 23 22 21 22 21 21 23 24 26 31 33 32 36 36 40 42 43 43
76 78 76 77 74 62 57 45 38 44 44 46 61 53 52 54 55 54 50 50 43 36 37 37 35 31 28 26 28 27 28 28 30 30 32 36 38 41 41 41 44 44 43 45
75 73 72 69 66 84 37 44 36 53 54 49 52 49 49 49 54 52 51 50 48 44 42 40 37 33 32 33 33 33 34 35 36 37 39 38 43 44 44 45 45 43 44 45
61 62 60 62 60 69 56 40 31 38 44 43 47 47 46 47 48 51 51 48 47 47 47 44 39 35 37 37 37 37 38 39 41 43 44 46 46 45 45 45 45 46 45 46
64 60 62 57 55 55 47 37 32 36 40 40 39 40 43 45 46 48 49 47 47 48 46 43 40 40 41 40 40 42 41 42 44 43 45 49 48 47 46 45 46 47 47 47
57 56 56 50 48 42 39 33 31 31 36 37 37 37 41 44 45 47 47 45 44 44 43 42 41 42 43 44 45 45 44 46 45 44 45 48 48 48 46 48 49 48 48 47
50 48 47 47 45 39 32 31 29 31 32 31 34 33 37 40 42 43 43 43 40 40 42 43 42 43 45 46 46 47 46 46 44 45 46 45 46 47 48 49 49 48 47 45
45 46 47 44 42 37 33 32 32 31 27 36 33 31 33 37 41 42 41 41 41 43 44 44 45 45 45 46 46 44 42 44 45 47 47 48 47 48 48 47 47 46 47 50
42 43 44 43 40 35 36 37 38 40 26 37 42 34 32 34 37 38 40 41 43 44 44 45 45 45 43 43 43 42 42 43 45 48 49 50 49 48 48 47 47 50 52 55
35 35 37 35 33 32 36 40 41 46 30 30 27 25 28 31 34 37 38 39 41 44 44 44 46 44 43 41 39 40 43 45 47 49 50 48 48 47 47 48 51 54 57 59
34 36 35 30 36 31 33 36 40 43 37 33 28 24 26 28 30 31 34 38 41 43 45 47 47 42 39 38 40 42 44 47 48 47 47 47 46 47 50 52 55 57 59 62
29 30 30 33 33 22 28 30 37 32 26 29 33 33 34 35 35 36 37 39 41 43 43 43 39 39 41 42 43 45 46 46 46 45 44 46 49 51 54 55 57 60 59 56
30 23 27 31 25 27 23 24 27 29 30 29 30 29 30 31 32 33 34 36 38 39 39 40 41 42 44 46 45 45 44 43 43 46 49 50 54 56 57 59 58 54 52 53
27 24 24 29 27 28 28 29 28 28 29 25 24 27 28 29 32 34 35 38 41 40 41 44 45 44 42 42 43 44 44 47 50 52 54 55 57 58 57 53 52 54 57 59
19 23 28 24 23 24 21 21 24 28 30 34 33 31 33 34 36 39 39 40 41 42 40 38 38 40 40 41 45 49 52 54 56 57 57 56 54 53 53 54 57 59 61 64

GFSNW_500_spd_027.txt.gz
Wind_Speed
96 93 85 77 74 72 70 65 61 55 53 53 50 43 38 33 34 34 29 24 24 18 18 13 16 13 14 15 20 20 19 17 16 12 9 9 13 14 16 17 16 20 12 12
94 95 92 84 77 73 72 67 61 60 56 52 49 44 41 38 38 37 31 25 26 25 29 29 14 17 19 19 18 15 16 17 15 15 17 16 17 16 17 19 16 15 14 10
89 93 93 89 81 77 72 70 68 62 59 47 48 46 45 41 42 39 32 29 27 30 30 16 21 26 25 21 20 21 20 21 20 19 17 20 19 17 16 21 22 14 11 11
89 91 95 92 86 80 77 73 67 61 56 54 53 53 46 44 46 41 34 36 34 34 33 33 33 30 24 19 18 20 24 25 24 24 21 23 23 16 15 16 18 17 11 15
90 95 98 94 89 84 83 74 63 58 49 51 55 57 49 47 47 42 37 40 39 36 32 31 29 26 24 21 22 25 26 27 27 25 24 24 23 16 20 19 16 17 15 18
74 94 99 94 92 92 87 73 62 57 53 55 58 56 47 45 46 41 38 38 38 38 35 32 29 26 23 21 21 23 24 24 24 21 22 22 19 15 19 17 18 20 20 23
57 86 101 99 97 93 85 73 68 62 57 59 55 49 47 48 49 45 41 39 39 42 35 32 28 24 22 20 19 23 20 24 24 22 23 23 18 16 16 17 20 22 25 25
46 71 96 103 99 92 85 76 73 65 59 56 59 50 44 50 49 48 42 45 42 41 36 33 28 26 23 21 23 21 21 23 24 24 24 20 19 17 16 19 23 23 23 26
47 59 85 102 102 95 85 81 76 69 62 57 56 52 50 55 53 51 48 46 46 44 38 34 30 23 19 21 21 20 19 21 23 22 21 21 21 20 19 23 25 21 23 25
44 57 80 100 101 93 85 83 75 67 58 59 53 57 52 54 53 49 45 48 47 42 39 33 28 23 22 19 15 17 18 17 17 17 18 18 18 17 19 19 20 21 25 28
45 57 74 98 99 91 85 81 76 68 57 40 51 53 53 55 53 52 45 47 49 45 42 37 30 25 21 18 16 14 13 12 12 12 13 15 15 17 18 21 23 25 29 32
44 52 75 98 96 87 82 78 69 51 35 38 41 53 55 52 52 54 46 46 38 40 42 37 32 27 24 21 18 17 15 15 14 15 16 17 18 19 20 23 26 31 34 36
44 59 80 96 94 88 82 72 67 51 41 38 48 49 51 52 55 52 47 54 40 47 43 41 36 33 28 25 22 22 18 18 18 19 21 21 24 25 27 29 31 35 38 41
46 68 91 85 85 83 77 71 55 41 51 47 47 52 55 54 52 49 50 49 50 42 44 43 39 36 33 28 28 26 24 23 24 24 27 28 32 34 36 39 41 42 44 44
70 90 96 83 78 73 66 62 70 37 37 38 59 54 51 53 50 46 48 48 44 41 44 47 45 40 36 33 33 31 30 31 30 32 32 33 36 39 41 43 46 47 47 46
97 93 76 85 74 59 59 44 51 46 36 28 40 36 50 57 46 40 45 46 45 47 50 50 48 43 38 37 36 35 35 35 36 37 38 40 41 43 45 47 48 47 47 46
79 79 81 85 75 63 56 53 29 54 48 40 50 43 47 49 48 41 45 47 47 51 52 52 49 45 43 42 41 39 40 39 40 42 43 44 45 46 49 50 48 48 47 47
72 72 68 70 78 46 25 31 27 29 29 37 36 41 43 47 43 39 40 41 44 49 50 48 48 48 47 48 47 45 43 42 44 45 46 48 50 51 50 48 48 47 48 50
62 62 69 66 56 43 22 28 25 17 20 26 29 32 34 37 37 37 37 37 39 45 47 48 46 47 48 48 46 45 46 47 47 46 47 50 52 51 52 50 49 50 51 52
68 60 56 46 32 26 42 23 19 19 19 25 30 28 28 28 30 32 35 38 40 43 44 43 45 44 44 45 45 45 46 48 48 47 48 49 50 51 49 50 50 52 53 53
50 45 40 36 34 33 32 29 30 28 22 22 24 25 25 28 28 29 32 35 38 41 43 44 44 44 44 44 45 46 46 46 47 48 49 50 50 50 51 52 53 53 52 51
46 39 35 34 30 28 27 25 24 22 21 21 23 23 23 22 24 27 31 34 38 41 42 43 44 42 42 43 45 45 44 45 47 48 49 49 51 51 53 53 53 51 50 52
40 40 38 35 36 37 36 33 30 26 27 27 16 18 27 29 28 28 31 33 37 40 42 42 42 42 42 42 42 42 42 43 44 48 50 51 52 53 53 48 47 51 54 56
35 36 38 39 38 35 33 29 28 32 34 37 21 24 21 17 23 29 30 35 38 39 39 37 38 39 39 38 38 39 41 45 48 50 51 52 50 47 46 49 52 54 57 61
31 33 36 37 30 29 24 22 22 28 35 33 39 26 23 24 27 31 33 34 37 39 39 38 37 36 38 39 41 44 47 50 51 50 48 46 46 47 49 53 56 60 62 62
27 28 29 28 25 24 18 15 20 27 29 29 30 33 32 32 33 33 32 33 35 35 35 36 38 40 42 43 46 46 45 43 44 43 45 47 50 56 57 60 62 60 58 57
21 19 15 14 20 21 20 19 22 21 21 23 25 26 25 26 27 30 32 34 35 36 39 43 45 45 45 43 41 42 41 42 46 47 51 56 59 59 61 60 57 57 58 60

GFSNW_500_spd_030.txt.gz
Wind_Speed
78 86 86 82 77 74 71 70 67 61 64 65 60 53 48 40 35 38 36 32 28 24 19 20 22 20 18 21 24 18 15 16 21 11 10 15 17 17 18 19 17 20 18 14
70 79 86 87 82 79 76 71 69 70 69 64 60 56 52 42 40 40 39 33 31 25 26 24 19 19 18 20 20 18 14 18 19 21 16 17 18 18 20 23 23 22 20 13
50 80 84 91 88 85 81 78 77 73 73 60 54 56 49 43 39 41 40 35 32 28 30 28 27 23 22 23 20 18 19 21 18 16 15 20 22 20 23 23 22 22 17 16
44 67 93 99 94 91 88 87 80 71 70 66 59 57 52 46 48 46 44 41 33 31 33 31 29 30 23 23 22 23 23 21 21 20 20 21 26 25 21 27 24 21 15 21
46 45 92 102 99 96 95 91 79 71 64 61 60 55 53 51 49 48 46 38 33 34 34 32 32 25 23 27 26 25 24 25 25 26 26 28 30 29 23 22 23 26 17 19
44 45 54 98 101 102 99 90 78 71 67 65 62 56 52 50 48 49 46 40 37 38 37 35 34 29 27 27 27 26 26 29 30 30 30 32 31 23 24 24 24 25 22 21
45 47 55 79 102 104 97 89 80 74 67 64 59 53 49 52 47 50 48 43 39 39 43 40 33 35 33 30 29 28 25 24 26 28 29 32 22 25 24 23 23 22 22 22
44 43 46 67 93 103 97 92 85 74 68 61 58 58 57 51 48 53 47 44 38 40 45 43 41 39 38 34 30 27 26 26 25 26 26 27 23 24 23 22 23 22 21 22
44 43 44 60 84 101 96 91 84 76 67 59 59 61 59 51 54 54 52 49 45 46 45 46 41 40 38 34 27 25 24 26 27 25 24 26 21 21 24 23 24 21 22 25
43 41 38 54 76 98 95 91 85 77 66 59 59 61 58 49 57 56 54 53 49 47 46 46 43 42 39 33 27 23 25 25 25 24 23 23 19 22 24 25 21 21 22 24
44 39 34 53 75 95 97 88 82 73 64 60 59 62 56 53 55 56 55 51 50 49 48 46 45 40 36 31 25 23 24 21 20 19 18 16 16 20 21 19 18 20 23 26
43 38 32 49 72 91 94 90 75 67 39 55 62 62 57 54 50 56 55 50 48 45 43 46 44 41 36 31 26 26 23 19 18 16 14 16 16 15 15 16 19 23 26 29
37 32 33 47 71 89 88 65 75 72 49 26 44 47 51 52 54 54 53 50 46 44 41 42 43 38 34 33 29 28 24 21 19 19 17 18 18 18 20 23 26 28 31 34
37 37 41 57 77 88 83 73 72 79 70 42 27 31 42 51 54 54 52 50 47 47 44 44 50 43 38 35 34 32 29 27 23 23 21 24 25 26 29 30 33 35 38 41
41 44 50 74 84 86 71 59 69 71 62 36 30 30 40 49 52 52 51 52 49 43 45 48 43 42 40 41 40 38 33 31 29 28 29 30 31 33 35 38 40 42 44 46
43 50 69 84 88 88 67 54 64 54 48 40 28 38 38 44 45 52 47 46 42 45 46 41 33 39 44 45 44 40 38 36 34 33 34 35 36 37 39 42 44 46 48 49
53 71 83 86 85 83 75 64 61 52 29 38 26 32 43 38 37 34 45 42 43 46 42 44 48 50 49 46 46 44 42 41 39 38 38 39 40 42 44 46 48 49 50 51
71 81 83 85 78 59 49 58 48 46 31 20 34 44 51 42 43 54 48 41 38 40 42 44 45 44 45 46 47 47 47 45 43 43 44 45 46 47 48 49 50 51 52 51
75 74 70 70 66 54 46 51 50 47 23 25 35 33 37 30 33 42 46 40 35 37 42 46 45 46 48 49 48 48 49 49 49 48 47 48 48 49 50 51 52 53 52 53
76 72 64 61 61 37 48 39 34 36 33 32 40 45 37 29 33 33 37 41 40 37 38 40 43 45 48 49 47 46 46 46 47 48 49 49 49 49 51 52 52 53 53 53
80 79 54 46 44 44 35 35 30 22 19 17 22 30 42 37 37 35 35 34 35 36 38 38 38 39 40 42 43 43 44 45 47 46 46 47 49 51 52 51 52 53 53 54
74 48 27 25 26 28 31 23 18 5 10 12 17 26 29 29 30 35 37 36 36 37 37 38 39 39 39 39 41 42 44 44 45 47 49 50 51 50 50 51 52 54 55 57
39 34 24 23 20 17 16 18 16 15 15 15 19 25 27 25 27 30 31 32 33 34 35 36 36 36 36 38 40 42 44 46 49 50 49 47 47 48 50 53 55 56 56 52
14 19 15 15 16 20 22 22 18 17 20 19 21 20 20 22 30 28 28 26 28 32 33 34 33 34 36 38 42 44 44 44 44 44 45 47 49 52 54 55 54 51 47 50
25 23 24 22 24 25 24 21 18 19 19 22 28 25 30 29 27 27 23 24 24 24 26 29 35 34 34 37 38 38 37 37 40 44 47 50 52 53 50 49 51 52 54 57
26 26 27 25 23 19 17 20 17 17 19 22 25 31 31 27 22 25 27 24 26 28 31 32 34 33 33 34 35 38 42 47 50 51 52 52 52 51 53 54 54 56 60 65
19 20 18 19 20 22 21 17 14 12 12 14 15 20 25 27 31 30 30 31 29 28 29 29 31 35 38 41 43 47 51 53 53 52 51 52 53 53 57 57 58 64 64 61

GFSNW_500_spd_033.txt.gz
Wind_Speed
78 79 86 86 84 82 80 75 70 64 64 64 54 48 49 47 41 45 43 43 39 29 25 22 22 20 21 25 25 25 29 27 23 21 19 23 19 25 26 27 22 24 21 16
68 84 83 90 89 86 84 78 75 73 72 67 50 50 50 46 43 45 45 43 41 32 30 25 23 25 25 25 24 21 20 22 22 19 23 19 14 14 20 24 24 24 24 17
52 73 87 90 93 91 88 85 85 78 79 60 55 53 50 50 45 45 47 46 43 35 31 28 23 28 30 25 23 24 24 24 23 18 18 22 25 22 21 25 27 23 24 20
50 52 78 92 96 96 95 93 89 77 74 64 57 56 54 52 51 52 50 49 45 38 32 31 25 29 28 25 24 22 20 23 21 19 20 21 23 23 24 23 23 25 24 25
53 54 50 76 95 100 101 98 90 83 71 65 61 59 54 54 55 56 55 51 45 39 34 32 25 31 28 23 23 22 22 22 23 25 24 25 26 27 29 26 26 30 31 29
56 53 52 52 71 89 108 97 92 85 75 69 68 55 51 50 55 53 51 45 41 39 32 30 30 31 29 29 28 25 22 23 23 24 27 30 31 28 30 33 33 31 34 29
55 52 55 53 50 66 98 98 92 89 81 74 61 59 56 52 47 52 49 49 47 42 38 36 36 35 32 31 32 27 24 26 27 30 32 35 29 29 29 30 30 30 31 25
54 53 53 51 48 43 75 97 96 92 86 74 70 63 59 56 51 54 47 50 46 43 42 39 41 40 38 41 36 30 28 28 29 33 32 32 27 25 26 27 28 26 26 25
52 54 51 47 45 40 51 89 96 94 88 78 73 68 64 60 54 54 50 57 55 50 49 47 48 45 42 39 35 32 29 29 31 33 34 32 21 26 25 27 29 24 23 23
51 51 52 48 46 42 43 72 93 91 88 83 78 71 66 62 57 56 54 59 58 55 53 50 48 50 46 44 36 30 29 32 33 33 33 28 22 25 28 29 19 22 24 26
49 47 46 45 42 39 44 74 88 89 85 83 77 74 68 62 62 61 58 62 60 58 55 50 50 51 46 43 40 34 31 33 33 31 29 26 21 24 22 19 20 21 23 23
46 45 44 40 40 38 48 75 88 88 82 80 74 70 65 61 61 57 61 62 61 59 54 52 50 48 43 40 41 35 33 31 29 28 24 21 18 16 14 14 17 20 21 22
45 42 38 34 34 40 53 77 85 83 79 77 70 67 66 61 56 60 61 60 59 54 50 50 48 47 42 39 38 32 34 31 29 27 23 21 18 17 17 18 20 22 24 26
42 37 34 31 29 59 60 76 81 81 78 68 64 52 59 60 54 56 60 63 58 52 51 50 49 47 40 37 35 35 33 32 30 29 25 23 23 23 23 23 25 27 30 32
37 34 29 28 40 57 65 74 77 76 70 63 56 41 45 53 57 53 58 60 56 57 56 50 50 43 40 38 39 41 37 33 32 31 30 30 29 29 29 31 32 34 36 38
28 29 29 35 58 64 72 73 78 71 55 62 35 37 33 41 57 58 56 52 56 57 56 54 49 45 41 40 42 47 43 37 37 36 35 35 36 36 37 38 38 39 41 43
34 29 31 45 62 82 76 73 73 71 57 47 36 38 34 41 49 53 54 53 52 54 55 51 45 43 45 44 39 43 42 43 43 40 41 40 39 39 41 42 44 45 47 49
41 40 39 56 76 82 75 62 52 71 61 25 26 26 27 38 46 51 52 51 48 47 49 50 46 45 44 46 39 40 37 38 41 43 43 43 43 44 46 48 49 50 51 52
41 44 56 71 75 69 55 38 30 48 51 44 22 22 22 35 36 38 45 46 46 55 47 47 43 44 46 44 45 43 41 39 42 45 46 47 47 48 49 50 51 52 53 53
56 69 74 74 72 57 50 36 27 36 47 39 24 43 18 37 39 41 39 43 43 41 51 46 44 41 42 41 43 43 42 41 45 46 47 47 48 49 50 51 51 52 52 53
73 73 71 74 56 45 33 23 24 41 49 29 16 19 11 47 39 30 38 36 41 42 42 37 35 39 38 42 43 42 44 45 45 46 47 48 48 50 50 50 51 53 54 54
68 59 52 42 31 22 13 34 28 19 22 23 21 21 26 43 27 26 32 35 36 42 45 47 48 41 37 37 39 40 39 38 40 42 44 45 47 48 51 53 54 54 54 54
66 62 38 25 16 23 39 38 24 21 18 12 18 24 35 43 42 34 38 42 41 40 41 39 37 38 38 38 39 40 42 42 42 43 45 47 48 50 52 52 51 52 53 55
51 45 17 19 20 29 27 20 16 15 14 12 12 15 21 26 31 33 31 30 30 30 32 33 34 34 34 35 36 37 38 36 33 39 48 49 47 48 49 49 51 54 58 60
32 28 18 15 15 17 16 16 15 13 9 10 11 18 24 26 28 29 28 28 31 31 28 28 30 32 33 32 31 32 35 39 44 46 47 44 43 45 48 54 58 60 60 59
14 13 9 4 7 11 11 10 10 10 12 12 14 17 21 26 28 29 27 30 32 25 25 27 28 29 31 33 36 38 38 38 38 39 39 41 46 52 58 59 58 57 59 61
9 8 8 8 10 13 13 11 12 15 17 16 18 22 28 31 30 28 24 22 28 30 32 32 33 35 35 34 35 37 38 40 42 45 48 52 56 58 58 58 59 60 62 64

GFSNW_500_spd_036.txt.gz
Wind_Speed
55 48 82 90 91 89 87 82 77 70 67 71 61 52 47 46 43 42 46 47 44 38 35 32 29 22 17 19 21 27 26 28 26 21 23 24 27 25 21 29 31 31 27 14
61 56 53 88 94 93 90 86 81 79 75 75 57 52 49 47 47 45 47 47 47 42 38 35 31 23 20 20 21 23 23 24 28 29 27 27 30 25 24 22 24 26 21 13
61 58 52 67 92 96 91 91 90 86 82 67 61 56 52 48 47 49 50 50 48 44 38 36 32 24 22 19 22 24 25 21 21 24 21 26 28 27 25 23 25 20 19 18
60 58 52 52 77 96 94 96 95 87 84 73 60 59 54 52 47 50 51 55 50 46 41 38 32 26 23 23 27 28 27 25 24 24 24 27 30 29 28 27 27 26 21 24
60 59 55 48 55 79 97 97 93 89 79 70 68 64 56 54 49 47 53 55 49 47 43 36 31 27 25 25 29 30 30 25 23 27 28 26 24 23 27 28 26 26 26 27
62 59 58 51 50 61 88 95 93 90 81 80 75 61 58 56 50 48 51 46 39 47 41 33 34 34 31 28 31 26 29 25 24 23 25 25 23 21 25 29 32 32 31 27
63 60 59 55 51 49 58 79 92 89 86 83 68 67 64 59 52 47 47 46 43 46 40 41 39 37 34 30 31 32 28 28 28 27 26 27 19 22 26 30 31 33 32 30
61 60 57 51 47 46 45 59 87 90 89 81 78 74 68 63 58 52 48 47 46 44 45 45 44 42 39 38 31 37 33 32 32 31 26 26 21 22 25 30 29 30 30 28
60 55 57 51 47 47 43 46 73 90 89 85 82 79 72 64 58 57 49 53 48 49 52 50 51 48 46 41 34 36 36 31 32 29 28 27 24 27 29 33 31 25 28 26
56 52 54 53 47 46 41 39 53 77 89 87 85 81 74 69 59 57 51 52 56 51 54 54 53 51 48 47 37 36 37 37 34 29 30 30 27 29 29 32 23 27 26 26
51 51 49 51 49 49 43 34 44 63 81 87 87 84 77 73 63 58 56 55 59 55 56 56 55 53 50 45 39 35 34 34 32 30 31 27 28 29 28 26 25 26 25 25
47 46 47 48 49 48 42 37 34 62 69 85 87 84 78 71 69 64 59 56 57 57 58 59 55 53 50 50 41 35 37 34 36 36 30 28 26 24 23 22 20 20 20 22
44 45 47 47 48 46 38 32 35 59 65 75 82 80 78 77 72 64 61 63 63 58 57 59 52 52 52 49 43 38 32 35 39 33 30 27 25 23 22 22 20 18 18 19
42 43 44 46 45 38 30 29 35 53 70 73 75 75 67 71 66 62 58 66 62 59 57 57 55 51 50 48 46 39 32 31 35 35 32 27 24 25 25 24 24 23 23 24
40 40 38 38 36 34 31 30 42 50 51 69 61 71 58 50 60 57 62 63 65 60 56 55 55 51 50 48 47 45 33 31 34 33 28 32 28 28 28 28 29 30 31 31
37 32 32 30 31 31 31 36 50 60 55 52 47 58 55 48 49 52 60 56 65 62 56 51 56 51 50 53 50 41 37 36 36 37 36 35 33 32 32 34 34 36 37 38
30 30 29 27 28 26 34 49 47 56 59 54 57 56 51 37 34 45 55 56 60 61 57 53 53 52 55 50 52 42 37 36 39 40 41 39 38 38 39 40 40 42 44 45
24 23 22 26 26 35 43 54 58 42 53 61 57 53 40 42 33 38 55 54 54 55 54 55 51 54 56 53 49 43 39 38 41 35 41 43 42 46 46 46 46 47 49 50
23 23 24 22 40 45 38 58 57 54 52 51 51 44 31 34 43 39 45 52 51 48 46 50 53 52 53 49 48 43 43 42 45 42 39 40 43 46 45 46 47 50 52 52
24 25 25 33 37 45 53 37 34 41 46 48 50 38 24 29 33 35 37 42 51 50 51 48 46 48 50 52 47 49 51 46 40 41 43 48 50 49 48 48 51 52 53 52
21 31 49 65 64 54 35 24 30 40 43 52 31 15 20 17 31 37 41 39 40 44 45 48 46 45 47 50 45 44 45 46 49 48 49 46 43 43 46 49 51 51 51 52
48 63 56 51 43 35 35 29 20 33 48 45 28 22 11 17 10 35 41 42 44 41 46 43 40 41 47 48 45 43 45 38 39 41 41 42 43 43 44 45 48 48 39 54
57 59 48 35 25 21 23 23 20 20 26 21 27 25 15 21 14 23 48 37 41 44 38 46 38 33 45 43 42 41 42 41 37 38 41 44 44 45 44 46 46 46 55 58
47 38 28 24 11 8 12 13 14 13 14 19 16 20 21 21 22 23 34 29 36 40 36 35 32 32 36 42 43 41 37 37 39 41 41 40 38 46 51 45 46 52 58 54
35 23 12 9 10 10 10 16 21 13 13 10 9 11 16 18 24 33 40 35 30 35 39 34 32 31 30 30 32 33 34 37 39 39 38 39 41 45 51 55 55 54 51 53
28 22 17 20 22 21 19 18 14 9 5 2 1 1 4 8 14 19 25 32 33 31 28 26 26 27 27 28 30 33 34 35 36 38 41 45 47 49 49 48 49 51 56 61
10 9 8 9 10 9 8 7 7 7 7 7 7 10 11 14 16 18 22 25 28 27 26 26 27 28 27 29 33 37 39 41 43 44 45 47 47 48 49 51 55 59 64 67

GFSNW_500_spd_039.txt.gz
Wind_Speed
72 59 59 60 60 68 85 87 85 79 78 76 70 60 50 51 48 43 48 46 46 46 38 34 32 25 19 22 20 16 21 24 26 24 29 28 27 25 26 27 23 24 26 20
77 67 61 59 64 59 72 88 86 87 85 83 70 58 56 53 48 43 48 46 49 46 43 41 36 25 24 25 22 19 23 24 25 28 28 26 26 26 24 25 28 25 22 15
73 68 62 61 66 62 61 82 90 90 88 78 68 67 60 57 52 47 49 47 48 48 41 38 36 28 26 26 23 23 27 26 22 22 22 25 26 29 27 28 31 31 27 16
70 68 65 62 66 63 56 68 92 91 90 85 72 67 61 60 53 49 48 48 47 47 43 42 35 28 27 26 25 27 29 23 21 20 21 28 31 33 30 29 30 30 22 21
67 69 68 64 66 66 60 57 81 89 86 77 79 75 64 61 56 51 48 48 43 49 45 40 34 29 28 29 28 29 28 22 22 23 25 27 28 28 26 25 21 22 25 21
71 63 69 66 66 68 63 50 67 79 86 85 83 72 66 61 58 54 50 49 47 47 42 35 35 35 34 32 33 30 31 27 25 25 25 26 24 20 21 21 23 25 26 24
72 67 67 66 66 63 56 46 53 75 87 88 80 75 69 65 58 52 50 44 46 44 36 39 39 39 38 37 35 33 32 28 26 29 27 27 11 17 19 20 21 24 25 25
71 64 64 64 63 58 52 35 38 58 79 85 79 78 73 70 64 55 52 46 44 44 40 43 45 45 41 41 37 35 31 29 30 31 28 26 20 17 19 22 16 24 24 28
66 55 61 61 59 55 45 33 35 48 64 85 81 82 78 75 69 61 57 52 46 45 43 43 50 47 44 42 40 38 32 30 35 36 34 29 14 20 22 23 14 18 24 27
62 52 57 58 55 50 40 36 36 46 59 79 83 83 80 78 72 62 61 54 47 48 47 46 49 48 48 46 44 38 34 31 34 37 33 24 20 22 23 25 24 22 25 26
58 55 53 57 51 47 41 37 36 37 51 69 82 82 82 80 76 66 61 57 54 50 54 55 50 54 51 48 42 39 37 32 33 33 34 34 22 24 26 26 24 22 22 23
58 53 50 54 49 42 37 36 33 34 49 61 76 83 82 81 79 75 66 54 53 53 53 54 53 53 53 50 47 42 39 34 34 32 30 28 24 24 25 26 24 22 19 19
53 48 48 48 43 38 33 34 34 34 48 54 69 78 80 79 76 71 67 58 57 57 55 53 50 52 51 48 48 44 40 35 32 32 32 30 27 26 27 26 25 23 21 18
44 43 45 41 36 35 32 34 32 24 38 51 53 47 67 73 70 69 67 61 57 57 57 53 58 58 49 47 46 46 42 38 35 34 29 28 30 30 32 31 27 24 24 23
40 39 37 35 33 31 30 31 31 26 41 50 58 53 34 36 56 60 64 62 59 58 59 59 55 53 49 48 46 43 42 39 35 32 25 28 29 32 34 30 30 29 28 28
35 34 31 31 29 28 29 25 26 29 40 47 39 55 55 44 37 36 51 60 58 58 58 60 59 54 46 44 45 41 39 38 37 39 37 32 31 35 34 34 34 33 33 33
30 29 27 25 25 26 25 24 23 24 37 49 44 37 39 38 34 40 47 47 55 57 56 61 59 57 48 39 44 45 43 42 40 42 38 34 34 37 40 39 38 37 38 40
27 24 23 24 25 24 22 24 24 22 32 41 45 23 27 35 36 36 31 41 52 55 57 57 58 57 51 44 36 42 42 42 42 41 37 35 32 30 31 40 44 45 43 41
26 25 23 21 25 23 21 26 31 41 37 38 40 29 26 28 32 34 34 34 42 50 53 54 51 53 51 46 42 38 45 47 46 44 40 40 40 39 42 42 42 40 42 45
22 21 18 18 21 22 26 34 42 42 52 49 25 41 41 34 31 25 22 29 35 43 48 48 49 46 47 52 51 45 44 48 52 51 45 42 42 45 44 44 43 46 51 51
17 17 14 17 23 32 38 27 28 51 46 44 39 41 34 24 31 36 28 17 32 43 43 42 46 45 45 45 46 45 46 48 49 49 49 48 52 48 48 45 48 55 49 42
24 36 44 39 34 45 29 23 23 23 27 39 40 36 32 18 26 36 21 27 28 29 36 40 42 40 42 45 45 43 44 47 51 51 49 46 48 58 49 47 55 47 42 43
56 52 52 50 35 26 25 17 13 16 24 28 31 33 22 19 23 32 40 30 28 34 33 34 36 39 39 38 42 46 50 53 53 48 48 43 40 40 42 44 41 43 44 45
42 40 32 18 9 26 21 22 21 14 24 30 12 8 3 8 11 8 10 26 35 37 37 38 36 32 22 34 36 37 44 52 50 44 34 45 34 33 37 41 43 42 48 50
20 21 24 21 23 25 25 25 26 26 21 19 16 17 18 16 12 16 16 19 28 37 38 38 36 41 37 33 41 37 37 36 35 36 36 35 38 41 42 40 42 43 48 51
19 25 24 24 19 14 20 17 10 21 20 17 15 13 8 8 12 18 25 25 18 28 35 37 37 34 34 30 31 32 32 30 30 32 34 37 38 39 39 43 47 51 54 55
24 23 21 21 20 19 17 15 14 12 12 10 9 7 7 7 7 7 7 10 13 16 19 25 29 29 27 28 28 29 31 32 31 32 34 38 43 47 49 50 51 53 55 57

GFSNW_500_spd_042.txt.gz
Wind_Speed
69 65 66 66 63 58 61 62 55 76 82 83 83 76 57 61 58 52 47 48 48 44 43 41 38 32 25 27 26 23 21 23 24 23 27 29 31 31 30 28 26 25 26 23
72 71 69 70 67 64 62 60 60 61 74 86 83 68 69 65 63 56 51 50 50 49 43 46 44 37 32 31 30 26 23 25 25 26 27 30 29 29 27 28 27 27 27 22
73 73 72 70 71 67 64 64 66 66 65 77 78 73 76 71 65 58 52 53 53 50 46 44 43 38 35 33 32 29 29 28 25 26 21 24 24 24 25 28 28 25 28 23
58 56 59 62 72 71 68 65 69 65 58 75 80 80 74 71 68 62 58 56 55 53 50 47 49 39 35 33 33 32 32 31 28 23 25 30 28 30 30 32 27 29 23 25
58 56 52 56 65 72 75 67 64 62 60 54 76 83 83 77 70 63 59 55 53 51 48 49 40 38 39 34 34 35 35 32 27 25 24 27 27 29 33 33 28 24 24 19
55 55 52 63 62 67 72 66 64 61 61 48 73 85 81 77 73 65 59 54 50 49 44 46 46 41 43 41 38 39 38 33 30 27 26 28 26 26 27 26 23 21 21 19
57 55 57 72 57 64 65 60 62 59 60 56 65 80 81 80 75 69 64 61 56 51 40 41 42 47 45 43 39 40 40 36 34 31 29 32 12 16 19 22 20 20 23 23
61 57 63 74 60 56 60 63 57 57 56 42 57 78 83 81 80 75 66 62 54 48 44 41 43 39 48 45 44 40 39 37 35 34 30 27 21 19 18 19 14 21 23 25
58 59 62 75 58 56 62 57 55 54 50 36 53 78 82 84 80 78 64 60 57 52 51 52 45 47 44 49 47 42 41 40 37 35 33 29 18 18 20 24 12 22 20 21
54 50 68 69 56 55 60 53 52 47 44 42 54 75 81 82 82 77 68 62 59 55 50 53 53 52 50 48 48 45 40 40 40 33 32 27 21 21 22 26 17 25 23 22
47 61 63 58 49 58 53 49 49 40 38 43 58 69 74 83 81 77 71 65 60 53 50 50 53 52 55 49 48 49 44 40 37 35 34 29 16 24 27 21 25 25 23 22
47 65 53 48 48 52 47 48 41 36 33 41 56 63 70 73 77 78 72 63 62 55 55 53 52 55 51 52 48 46 47 41 37 36 33 26 21 23 28 27 27 27 22 24
64 58 50 45 46 44 45 40 34 32 28 31 41 51 55 66 75 76 76 67 61 55 52 50 48 45 49 45 51 46 43 39 36 36 36 31 22 20 25 30 33 30 27 25
51 49 43 41 44 43 40 36 30 30 27 25 35 54 55 45 48 76 71 67 62 58 54 55 53 48 48 49 48 50 48 41 44 41 33 29 21 20 27 32 36 32 29 27
45 42 39 41 44 40 35 32 31 30 28 26 31 44 40 59 63 70 67 64 63 59 54 56 55 52 49 47 47 50 46 46 44 41 31 31 25 27 30 33 32 32 31 31
42 40 39 42 40 35 33 30 30 28 22 20 39 47 44 48 54 57 61 57 56 57 58 56 53 52 49 47 46 43 38 37 40 43 44 38 34 32 32 35 34 33 32 33
35 35 37 36 35 32 27 21 20 25 23 22 37 37 33 23 31 34 42 52 53 52 55 58 55 51 51 51 44 37 36 37 40 41 41 39 34 35 39 38 40 39 38 39
33 32 30 29 26 23 25 23 20 19 19 50 48 37 35 41 40 34 31 36 48 50 51 54 54 54 50 53 45 40 35 34 32 36 38 38 37 36 35 34 38 34 35 38
31 29 27 27 28 25 21 19 16 18 28 46 39 42 47 44 31 27 22 27 31 38 44 48 49 52 55 53 45 41 37 37 36 36 38 44 35 36 37 38 37 39 40 38
30 28 26 25 23 18 18 17 13 12 41 38 44 44 40 37 34 31 28 29 24 26 37 37 48 49 48 44 42 41 40 39 41 41 35 35 41 44 47 44 44 43 41 44
23 20 20 19 19 18 15 17 22 22 49 39 40 33 30 23 27 33 35 23 20 26 30 33 39 42 45 42 40 39 38 39 39 42 45 45 44 44 48 45 46 47 48 54
18 19 18 17 17 17 19 28 28 35 56 33 23 40 37 28 32 35 32 24 21 30 29 29 36 39 39 39 37 39 40 40 42 42 44 46 47 46 48 49 50 51 51 54
22 24 24 26 27 25 22 26 35 50 34 24 27 34 37 31 27 28 27 29 28 16 20 24 31 39 41 39 37 36 40 42 44 46 45 44 46 48 48 52 49 51 53 55
44 43 38 32 26 23 30 30 25 37 28 36 38 37 34 18 23 29 31 30 28 30 34 25 24 27 29 31 32 34 35 41 45 43 41 44 38 37 49 55 47 41 37 36
32 22 12 14 12 15 17 21 29 36 29 22 23 24 13 10 10 13 18 23 28 34 38 37 33 27 24 28 30 35 34 30 35 42 37 37 42 41 30 36 38 37 39 41
10 19 17 15 19 25 29 30 27 25 22 18 12 19 12 12 13 17 20 20 21 26 29 33 36 37 37 32 32 34 35 38 40 43 33 31 33 33 33 34 36 38 41 45
26 26 26 27 25 24 24 24 27 23 22 22 20 16 13 14 18 14 17 22 24 17 15 19 20 25 29 31 33 37 35 30 26 27 30 33 34 35 37 38 41 44 47 52

GFSNW_500_spd_045.txt.gz
Wind_Speed
53 52 54 57 57 58 61 58 55 51 60 61 66 79 66 64 68 65 64 57 52 49 46 45 44 41 43 41 36 38 33 30 33 28 25 22 23 24 28 28 25 28 28 22
60 58 57 60 63 62 61 61 61 60 60 64 58 64 72 76 74 71 67 62 54 53 50 46 47 45 45 47 38 41 35 36 32 24 27 29 31 27 23 26 27 30 28 24
65 65 65 65 68 68 66 67 66 67 66 54 63 46 66 80 76 72 67 63 56 52 51 53 49 43 40 40 38 34 35 37 36 30 22 19 25 26 27 27 32 31 31 21
73 73 72 72 71 72 69 72 73 68 64 61 52 51 52 74 80 74 72 66 59 55 54 47 49 43 46 41 43 41 40 39 36 33 26 21 19 22 25 28 30 30 24 20
74 73 71 68 70 69 74 78 69 66 59 56 54 54 53 67 74 75 73 69 59 57 53 49 39 49 54 50 44 39 42 41 38 37 31 32 33 31 28 25 29 30 25 23
65 65 66 68 67 69 75 72 68 68 61 61 60 55 51 55 70 75 74 68 58 45 51 47 56 50 48 54 48 44 43 44 41 41 33 30 39 28 29 27 29 25 24 20
58 61 64 64 69 66 65 63 65 67 65 64 57 50 52 50 68 73 74 72 64 50 47 49 49 54 46 54 41 46 44 47 43 39 37 42 26 25 25 27 23 24 25 23
54 52 55 57 70 73 64 57 61 57 60 59 55 51 51 49 65 76 71 68 66 57 43 54 48 50 45 55 46 49 45 41 44 44 41 36 28 27 22 24 19 21 25 22
57 54 55 54 56 60 66 48 52 57 52 58 51 51 50 52 60 77 70 66 69 58 55 56 54 55 48 48 49 51 45 44 43 44 42 42 23 24 23 24 20 21 25 24
55 59 60 56 55 57 61 61 53 57 49 54 47 46 48 50 49 69 73 70 61 68 63 53 54 54 46 54 45 36 52 48 45 43 44 39 25 24 24 33 11 26 25 25
55 61 60 58 57 56 55 49 55 50 42 41 47 47 48 47 51 61 71 59 68 69 61 54 56 53 49 53 57 49 48 49 49 44 44 43 31 20 27 25 27 33 33 30
55 60 62 58 50 59 57 55 44 49 40 35 38 44 43 35 39 53 69 61 57 60 59 57 55 52 50 48 52 49 52 46 49 47 45 38 28 25 22 22 30 33 33 33
49 55 58 55 56 64 51 45 44 42 37 34 32 39 42 35 38 52 65 67 52 57 58 55 54 56 47 48 44 49 51 45 44 47 42 37 33 30 28 23 26 30 34 35
46 51 56 58 64 56 45 42 46 40 38 34 30 34 37 42 36 39 58 41 52 61 60 59 56 54 49 44 42 48 49 52 46 47 45 41 42 32 30 31 33 36 37 36
45 55 62 64 54 45 42 41 40 41 34 29 27 26 31 38 35 36 41 62 51 60 60 59 54 53 51 49 43 42 48 49 48 47 46 39 39 37 35 36 35 37 35 34
51 53 50 45 39 38 38 41 39 32 30 27 21 23 35 36 41 36 29 43 54 54 52 55 55 49 50 51 43 37 38 45 43 49 43 45 45 44 38 34 33 35 37 35
42 41 39 36 37 38 38 35 30 26 26 27 21 23 31 38 40 33 28 31 46 47 52 56 52 51 50 48 45 36 34 36 40 42 45 46 44 45 45 46 39 35 39 37
39 40 41 40 38 37 34 30 27 28 29 30 18 24 32 47 40 30 23 25 32 45 52 51 50 51 48 52 48 40 37 37 35 34 36 40 39 44 46 47 43 40 39 35
39 40 39 37 34 29 26 25 24 24 26 23 24 40 35 29 32 30 27 22 27 37 41 44 45 45 51 52 47 41 40 37 36 34 36 35 38 32 34 39 39 35 35 34
33 32 31 29 29 27 25 22 19 19 19 17 40 42 30 40 29 17 24 28 21 29 36 37 44 41 44 51 44 40 38 38 36 37 36 37 35 33 37 30 33 38 43 45
29 29 28 27 26 24 22 19 16 20 33 39 36 27 33 37 37 30 28 28 27 20 24 27 31 35 43 42 37 34 33 31 33 33 32 34 37 39 40 41 42 42 43 46
28 27 26 23 23 21 20 15 19 31 38 39 29 28 39 42 30 31 29 26 29 22 22 23 24 23 28 30 28 25 26 28 30 33 35 37 38 40 40 42 44 46 49 51
23 21 25 22 22 20 20 19 23 23 38 32 31 35 33 31 27 32 36 24 21 14 17 24 26 27 25 25 25 27 28 29 31 33 38 42 43 43 42 43 44 46 48 50
13 11 14 16 18 21 20 17 20 42 35 24 33 28 31 32 31 29 36 31 30 27 23 20 23 19 20 23 26 31 34 36 38 39 39 40 43 44 45 46 45 43 44 51
29 26 22 21 17 16 21 24 34 29 15 21 27 29 33 32 32 33 35 34 32 31 32 28 28 27 26 22 23 25 26 28 30 34 32 33 33 35 37 39 42 43 46 46
17 11 8 15 20 26 29 37 27 17 14 19 28 30 23 18 21 26 30 32 33 31 31 34 34 31 28 31 34 32 31 32 35 35 38 42 44 43 43 40 39 40 44 46
24 25 28 30 31 30 27 26 26 25 25 30 29 21 12 8 10 14 20 20 22 22 23 27 28 30 30 29 31 33 36 36 37 40 41 37 36 35 36 38 41 40 41 44

GFSNW_500_spd_048.txt.gz
Wind_Speed
42 41 42 43 42 43 45 47 46 42 46 50 50 45 30 49 60 66 63 65 60 55 47 41 39 40 41 35 36 43 40 33 32 30 32 25 30 30 31 32 24 24 24 23
47 47 48 49 49 51 51 51 52 52 54 49 43 36 34 39 58 66 65 64 63 60 48 45 41 38 37 41 42 42 42 44 36 33 35 28 31 32 34 35 29 32 31 22
54 55 56 55 56 55 56 58 56 56 57 51 46 38 35 38 42 60 64 64 65 61 52 50 45 50 44 46 47 41 42 45 43 39 30 24 30 29 29 24 28 28 30 30
59 58 56 56 57 59 60 64 62 56 53 50 48 50 41 45 52 48 57 65 65 63 44 41 36 43 35 46 49 43 44 52 44 42 35 25 25 21 33 33 34 37 34 30
61 61 61 61 61 62 63 69 64 60 57 54 56 52 45 43 48 54 48 64 69 61 44 44 33 41 37 40 50 47 48 53 45 45 40 34 34 31 26 26 22 26 23 25
72 73 74 72 71 69 69 72 65 65 60 60 63 58 49 48 47 51 50 51 63 68 56 53 49 38 36 45 45 44 46 48 44 46 42 41 42 33 29 28 28 27 27 29
83 84 83 82 81 79 71 72 67 69 68 65 63 56 56 50 52 52 47 46 61 62 59 42 31 51 42 44 43 50 55 50 54 51 43 50 43 42 40 46 36 35 34 31
49 52 55 57 60 60 66 75 73 66 61 64 64 60 56 51 54 53 49 46 51 60 53 67 57 28 42 57 47 53 51 53 56 55 53 46 45 38 40 33 32 31 31 32
50 49 51 49 47 56 73 77 64 61 55 52 46 52 52 53 55 54 48 46 46 52 63 73 56 36 48 43 55 50 56 50 50 50 53 50 43 38 36 34 38 21 27 28
57 56 54 56 57 58 65 70 68 63 60 46 49 51 50 52 52 48 45 44 44 46 53 69 70 42 47 47 56 59 51 47 49 49 44 43 43 32 33 36 21 23 27 23
48 50 47 51 55 54 56 68 65 59 55 47 46 48 50 54 47 49 41 40 49 48 54 53 69 59 35 51 50 50 48 50 44 48 49 47 38 37 39 30 20 28 29 29
38 42 41 50 50 52 56 61 59 55 47 49 48 44 43 36 41 43 43 40 38 68 44 43 58 68 64 45 51 43 45 51 49 48 48 45 39 37 30 24 25 28 34 34
33 37 43 49 48 51 60 58 52 52 50 41 47 36 34 36 35 37 39 43 34 43 61 52 54 66 63 54 53 46 44 47 39 41 48 48 45 38 37 37 36 28 30 41
36 42 48 48 46 44 59 57 60 54 46 41 38 37 38 34 33 34 37 39 41 50 57 48 45 45 53 55 48 41 41 49 49 32 32 26 42 42 45 40 44 39 35 38
42 49 51 51 43 46 47 44 45 46 44 40 27 28 29 33 35 37 32 25 36 50 57 61 52 46 51 54 51 42 38 42 49 55 50 43 42 39 29 39 45 40 40 44
51 48 47 45 44 45 49 43 44 39 39 34 36 25 26 27 31 36 34 26 36 45 47 42 45 51 53 52 52 45 38 37 37 44 47 53 48 46 51 47 43 44 45 50
46 46 43 43 50 44 38 34 32 34 33 31 30 21 22 26 31 32 33 25 39 35 45 43 42 47 53 51 49 40 41 37 32 35 40 48 46 45 48 47 50 49 49 42
42 42 46 47 42 36 34 33 35 32 35 29 23 18 12 20 21 26 32 33 47 35 43 32 44 45 45 49 47 40 40 38 38 38 33 29 34 38 42 45 44 45 48 48
45 43 40 38 35 32 30 32 34 32 30 27 22 17 17 23 26 27 35 30 45 48 42 37 33 31 42 51 44 42 42 40 39 35 33 33 33 31 32 33 40 43 45 46
39 39 39 37 34 34 34 31 29 27 26 26 27 21 24 27 36 33 32 32 32 33 36 38 37 34 34 42 42 41 37 37 36 34 35 33 34 34 36 37 36 37 37 34
38 37 35 33 31 27 26 26 22 21 21 20 23 25 28 39 39 34 28 31 27 27 28 26 26 31 35 37 37 38 35 37 38 37 35 35 34 33 33 36 39 40 41 40
27 27 26 25 22 21 20 18 19 18 18 17 29 34 31 40 41 36 38 36 25 19 25 24 23 24 30 29 28 30 30 31 31 31 31 31 31 33 35 38 40 43 44 44
20 21 25 24 22 18 14 9 6 19 21 28 40 29 19 31 20 24 29 25 34 21 25 32 29 17 18 18 20 24 26 29 30 30 30 31 33 39 40 43 44 47 47 45
21 23 20 19 17 17 19 22 14 14 23 23 23 10 16 13 13 26 37 30 18 39 30 28 29 24 21 22 24 25 29 31 35 38 41 42 43 45 45 46 47 47 46 48
12 17 18 18 17 17 20 22 23 27 15 19 22 24 25 19 15 24 30 27 19 30 30 19 20 15 20 21 21 23 27 28 28 31 34 39 42 44 46 45 44 43 42 43
18 16 18 15 15 20 20 26 34 26 29 27 33 36 35 29 27 29 30 34 32 28 26 22 25 26 25 26 25 25 27 28 27 29 32 33 34 36 39 42 45 48 51 51
11 13 19 21 21 29 30 28 28 28 33 29 34 34 33 19 22 21 23 25 27 24 22 23 24 27 30 30 30 31 31 33 34 33 36 39 41 42 43 43 43 43 44 45

GFSNW_500_spd_051.txt.gz
Wind_Speed
41 40 39 39 39 39 39 39 35 32 38 45 41 32 27 35 49 54 56 59 56 56 60 54 50 41 42 31 30 31 31 32 35 36 37 30 30 26 32 32 28 30 27 27
39 39 39 40 40 40 41 42 37 38 40 37 28 20 23 31 36 38 55 57 60 52 51 51 51 48 39 37 30 35 34 36 42 40 43 36 38 31 32 37 30 36 33 23
38 39 40 42 43 44 46 48 46 43 41 36 34 33 29 30 34 37 33 43 56 61 56 52 52 52 44 37 36 38 34 36 44 45 41 36 37 28 33 39 39 33 35 29
40 41 42 45 47 48 51 55 49 46 42 37 39 38 35 33 31 33 35 36 40 60 65 54 49 52 50 34 39 42 41 44 41 45 44 44 35 33 29 35 33 39 29 31
44 45 46 47 49 49 56 57 53 51 47 46 43 39 35 34 32 36 33 32 31 37 61 64 56 48 48 36 45 42 44 47 41 44 50 45 40 35 36 32 31 34 32 33
48 50 51 52 52 52 54 55 54 55 51 50 48 37 31 31 41 41 39 34 34 35 34 52 55 54 45 52 38 51 48 51 47 46 47 50 50 48 37 35 30 35 34 30
53 55 57 59 57 58 57 56 55 55 56 53 45 41 41 42 43 41 44 41 39 27 33 56 58 53 48 54 37 44 46 46 50 48 46 53 48 50 43 36 35 33 36 34
60 61 62 64 64 61 62 62 62 63 63 57 51 48 44 49 48 47 46 43 36 36 38 48 59 55 60 58 41 46 32 41 49 49 50 51 50 48 50 44 39 42 39 38
68 68 68 68 70 70 65 67 59 60 60 65 52 54 55 54 52 48 49 43 44 43 39 44 53 59 62 60 40 40 38 45 41 46 51 50 48 46 49 48 51 43 38 35
56 55 53 52 49 49 55 60 59 67 71 51 50 53 53 53 52 50 48 49 48 42 42 44 45 56 64 59 52 43 55 41 49 47 51 49 47 46 41 53 47 38 32 35
57 56 55 53 50 46 48 54 54 75 49 58 60 57 51 50 53 53 50 49 48 45 43 42 43 52 60 64 40 35 39 62 50 46 45 44 45 40 41 48 34 32 26 31
41 45 51 56 54 48 45 48 53 68 41 50 50 55 48 41 42 37 42 48 41 42 43 38 38 43 51 61 53 31 24 36 43 54 56 49 39 42 45 35 42 35 37 42
32 40 39 46 57 56 51 46 48 55 50 36 48 46 40 39 39 37 39 41 41 37 32 35 35 43 52 48 65 57 42 27 33 44 50 50 44 43 40 38 39 41 44 44
24 29 38 39 46 51 52 50 50 48 53 41 42 38 42 32 37 34 35 39 41 39 36 32 43 35 51 46 47 54 55 49 36 36 37 48 37 42 47 47 40 43 51 47
23 34 37 40 40 40 38 42 43 50 47 40 45 28 35 35 35 40 37 37 39 38 38 32 40 40 32 40 39 44 43 50 44 37 42 45 45 39 42 45 44 40 53 53
30 34 39 39 34 39 39 45 43 38 42 41 37 33 38 45 40 31 33 34 34 35 32 36 37 45 51 33 30 37 38 44 42 42 43 43 44 42 47 37 41 38 44 43
38 39 39 38 37 36 45 46 42 44 40 38 31 30 26 29 32 26 31 33 31 27 35 39 42 32 33 57 36 31 36 37 42 48 48 43 47 43 42 42 41 47 41 42
40 36 34 40 37 48 43 44 39 46 31 27 29 30 25 27 29 32 31 31 35 34 29 40 37 37 42 42 42 36 32 33 41 43 44 42 36 30 32 37 39 43 49 50
34 35 38 44 45 40 36 37 33 31 31 29 30 29 21 22 28 28 30 30 31 31 34 36 33 38 40 39 41 40 37 38 34 33 37 36 31 30 27 25 27 33 37 39
44 43 41 40 37 34 34 33 33 36 35 30 29 26 23 19 24 20 22 24 27 33 40 32 30 29 46 39 37 33 31 30 34 36 37 34 33 33 33 33 32 31 34 35
37 36 35 33 32 32 32 33 30 31 30 26 24 23 18 20 23 24 29 22 19 35 38 29 31 31 31 34 31 28 27 31 32 31 30 31 32 34 34 35 36 37 40 43
29 26 27 26 24 25 26 27 25 24 22 21 23 23 26 20 23 31 32 30 23 23 31 32 36 29 23 28 28 25 24 24 28 33 33 32 32 34 36 35 36 40 43 45
27 28 24 22 20 19 19 17 19 16 17 16 15 15 17 22 29 34 32 30 23 27 18 31 29 32 34 32 28 26 25 27 29 30 32 33 34 35 36 37 38 42 47 50
20 18 16 12 12 15 20 15 14 17 18 17 17 16 17 29 29 28 26 24 29 35 24 24 30 35 29 25 25 22 23 30 34 36 38 40 43 46 48 50 50 54 55 52
17 14 14 13 13 17 24 18 15 20 25 26 19 12 20 23 25 19 24 26 22 18 28 21 19 25 26 24 24 24 25 26 29 33 36 38 40 44 47 50 52 53 55 55
13 11 12 14 12 14 20 23 21 21 19 20 21 18 9 12 9 13 13 15 17 15 17 11 19 20 16 25 29 25 27 24 27 30 33 35 38 39 40 42 44 47 48 49
19 19 17 15 12 14 18 19 13 20 22 18 18 17 12 15 10 7 7 7 14 19 20 18 10 16 17 20 20 23 25 27 29 32 34 36 40 42 43 45 47 50 51 51

GFSNW_500_spd_054.txt.gz
Wind_Speed
42 43 42 41 41 42 40 39 42 40 44 47 48 46 46 47 46 47 50 53 52 49 51 52 48 45 45 40 38 37 33 35 31 34 36 35 39 36 29 34 35 31 30 26
41 41 42 41 40 40 35 39 37 39 40 42 39 37 36 39 41 37 44 49 54 51 54 54 54 52 48 46 45 41 37 41 38 38 37 43 43 39 34 33 32 36 35 27
30 32 37 39 40 36 38 40 39 40 39 32 30 35 36 37 34 33 33 32 44 50 57 59 54 49 49 50 47 47 42 44 41 35 33 40 43 41 39 33 35 35 38 26
29 29 33 37 37 37 43 43 40 37 36 34 32 31 30 29 25 28 29 27 25 37 49 58 62 54 50 48 48 45 44 47 44 40 34 44 45 43 43 41 37 40 32 32
34 36 36 37 39 42 49 47 42 40 38 35 35 32 29 32 32 32 25 23 25 28 28 48 57 51 52 49 47 47 45 44 45 43 34 45 51 45 43 44 40 41 31 34
36 39 41 41 40 43 45 46 46 46 42 39 35 32 30 34 37 37 32 27 25 17 26 35 60 57 57 56 50 40 46 47 46 49 42 38 53 51 50 46 45 41 38 34
38 40 43 45 46 48 49 49 49 50 47 42 32 36 38 36 34 38 38 34 32 27 31 30 35 56 62 59 55 58 32 44 47 45 45 48 41 47 49 51 47 43 37 35
45 45 47 49 51 54 56 56 55 53 51 45 43 40 40 41 39 39 38 38 38 35 32 33 33 36 45 51 58 58 56 47 49 49 53 51 52 48 46 49 48 42 43 41
54 52 51 51 53 54 55 55 54 56 54 47 43 44 45 43 39 42 39 42 42 40 36 35 33 33 34 36 43 56 62 55 53 27 51 56 48 50 45 49 52 49 51 42
60 58 57 55 55 56 56 56 54 55 54 51 51 49 47 44 42 43 43 41 44 42 40 40 38 37 38 39 37 47 60 59 52 38 35 49 49 49 47 50 46 50 52 53
55 59 62 62 61 60 60 60 58 56 55 54 56 56 54 49 48 46 43 45 46 47 43 41 41 42 40 40 37 45 57 58 50 40 43 47 41 42 43 45 47 43 48 51
44 45 47 51 52 51 51 51 51 51 49 59 53 56 55 51 44 41 43 45 44 44 44 41 40 43 43 39 40 41 59 56 52 36 26 46 48 41 37 34 39 40 39 46
39 47 52 54 49 46 48 48 45 42 47 65 64 60 57 43 44 44 42 41 44 46 46 46 44 44 43 41 38 39 45 57 55 33 14 25 28 41 38 34 33 37 39 38
31 39 36 41 48 49 45 42 40 37 37 46 57 29 37 57 47 40 38 35 37 39 37 41 47 46 42 39 38 38 39 45 61 55 24 17 18 30 44 38 37 34 34 35
26 31 32 36 43 42 42 39 37 35 44 43 40 23 32 39 45 43 39 38 36 36 36 38 41 37 37 39 36 26 27 33 46 64 47 39 33 30 31 39 48 49 48 46
24 26 29 35 39 46 44 46 39 36 46 48 23 24 34 32 36 35 35 38 36 36 34 34 36 35 34 39 34 40 28 33 33 42 49 41 40 32 29 33 40 45 48 50
30 31 36 34 40 40 41 40 36 32 25 31 29 25 25 27 39 30 31 35 35 35 36 33 33 34 32 30 36 36 41 48 34 38 42 39 39 38 35 33 33 46 46 46
38 41 42 42 39 39 38 36 37 37 33 35 31 30 30 26 37 37 33 29 37 34 36 36 38 33 32 28 30 34 33 34 31 31 36 33 33 32 32 32 33 36 37 43
43 43 40 37 34 40 46 36 38 39 37 29 28 27 29 26 25 22 29 28 34 39 37 37 38 34 30 32 23 21 33 39 41 32 32 30 30 29 27 26 32 33 31 34
42 47 44 31 34 34 36 31 40 39 31 31 25 22 24 25 26 25 27 27 28 30 37 38 34 30 40 40 37 33 24 33 38 33 33 34 31 27 27 29 33 34 32 31
45 41 40 40 38 35 33 31 34 31 25 24 21 23 26 21 19 23 25 18 22 28 34 40 41 37 38 37 38 37 41 35 32 34 39 40 34 31 31 31 31 34 37 39
38 38 40 40 39 36 34 31 30 30 28 25 23 24 24 24 19 22 26 18 9 17 20 27 37 34 30 25 37 31 41 33 35 36 37 37 34 32 30 32 35 37 40 43
27 26 27 27 27 27 25 24 23 24 23 23 21 21 21 19 17 24 32 28 14 13 11 17 23 25 22 16 14 14 29 31 36 34 39 41 42 39 39 41 45 43 45 48
19 18 17 20 22 20 19 20 20 19 18 18 18 20 22 21 22 23 28 31 24 19 21 17 18 21 22 23 27 29 29 32 36 38 42 45 45 44 44 48 51 52 51 51
13 12 10 13 15 16 15 15 18 19 16 15 16 12 11 9 13 17 25 23 24 16 19 19 19 19 21 24 23 23 24 27 30 32 30 32 34 37 42 44 45 45 45 45
13 15 19 19 21 23 25 25 28 26 21 18 15 11 10 10 11 8 11 15 15 17 24 18 6 14 22 20 23 25 25 25 28 29 30 32 34 37 38 40 41 44 45 46
14 16 17 20 22 26 23 20 18 17 16 17 18 14 14 13 7 5 1 4 3 7 1 9 10 8 7 9 11 13 17 20 24 27 28 28 28 30 33 35 38 42 44 44

GFSNW_500_spd_057.txt.gz
Wind_Speed
43 43 42 43 43 43 45 45 49 42 47 49 50 50 50 49 44 47 42 46 43 45 43 42 42 42 43 42 44 42 38 37 31 38 38 41 41 40 39 43 40 34 32 21
38 38 38 40 40 41 41 44 46 41 44 49 49 50 45 46 44 42 43 45 46 47 46 44 43 40 41 43 45 46 43 43 38 38 39 44 45 45 41 43 43 39 37 25
39 38 38 38 39 41 42 44 45 43 43 44 42 43 41 41 36 35 43 44 46 51 53 52 46 44 44 44 42 42 42 41 41 38 38 39 40 40 41 42 45 42 39 30
32 33 35 36 37 38 42 45 45 42 38 35 34 37 34 33 32 31 35 39 41 46 52 57 54 48 47 48 44 44 46 45 46 44 37 40 42 43 42 43 43 44 35 36
24 25 28 30 30 35 43 44 41 36 33 33 34 34 29 30 29 28 28 26 27 32 40 53 62 53 50 50 49 46 43 47 47 44 44 40 44 45 45 44 44 48 48 45
25 26 27 28 31 38 41 38 37 36 33 29 32 32 32 28 25 22 23 27 32 32 31 36 50 62 61 53 48 50 54 47 46 47 45 45 46 45 45 48 45 46 50 43
30 31 32 32 33 35 37 37 36 36 30 29 34 35 32 28 24 24 24 30 30 31 33 33 33 41 58 61 59 52 51 50 48 48 48 47 42 45 39 47 49 49 48 46
34 34 35 37 41 43 43 41 42 41 38 36 34 35 33 32 29 28 25 29 31 34 32 29 26 28 29 44 56 55 52 52 52 44 45 47 42 46 42 41 46 50 50 48
41 41 40 40 41 44 46 45 42 41 39 37 39 37 36 32 31 32 31 30 35 35 35 32 29 28 25 26 27 30 43 58 62 58 53 42 46 43 43 46 48 42 43 52
49 49 48 47 49 49 49 49 48 48 49 45 43 40 39 38 36 35 33 31 36 34 36 38 34 30 27 25 24 28 35 40 57 58 60 54 39 32 37 49 45 45 49 51
59 58 57 55 54 53 55 55 55 54 55 55 50 46 44 43 40 39 35 37 37 40 38 38 38 35 32 30 29 28 29 34 36 54 63 61 52 43 42 34 38 43 43 44
50 57 62 61 58 54 54 55 55 57 60 59 56 53 50 46 45 42 43 41 37 42 41 38 38 37 36 33 33 33 33 32 37 41 47 62 64 43 39 32 26 35 41 50
48 45 47 53 57 56 57 54 56 57 57 58 58 54 50 48 44 44 46 42 39 41 44 42 40 39 39 38 36 36 37 39 40 45 38 50 54 60 38 33 25 29 35 35
39 50 43 41 42 47 56 60 60 59 59 59 55 52 51 49 47 44 42 41 40 42 43 42 42 40 42 42 41 41 41 42 40 41 42 40 46 47 38 11 37 37 35 35
33 37 42 43 40 41 38 38 46 51 51 51 50 45 49 48 45 44 39 39 41 37 38 42 39 41 42 44 45 45 45 43 42 40 41 31 37 48 24 17 17 23 40 37
31 33 33 34 38 39 39 35 36 36 38 37 35 40 43 50 41 34 36 39 42 40 36 35 34 34 32 36 43 44 42 42 41 34 33 31 31 53 46 39 30 22 28 41
28 27 32 37 41 41 37 30 26 34 33 30 34 41 46 52 48 38 36 45 43 37 35 33 33 31 34 37 37 36 39 41 37 31 21 26 30 39 43 40 34 31 27 27
29 32 35 36 34 38 34 36 32 33 32 25 17 26 30 36 41 42 39 39 44 40 38 36 37 36 36 39 37 35 32 36 43 47 32 30 31 37 40 40 39 35 34 29
33 35 38 35 36 43 37 37 34 35 35 18 19 31 25 21 25 28 30 34 37 31 34 37 38 42 41 32 33 37 31 33 41 49 39 40 35 35 41 41 35 34 30 28
36 35 40 40 44 41 38 36 28 34 18 27 33 31 30 27 24 26 29 28 28 28 27 33 35 33 38 36 32 32 32 27 30 35 38 37 35 33 36 34 35 37 33 32
35 39 42 45 43 38 36 33 24 33 24 27 31 32 31 25 20 21 23 24 24 23 24 30 35 34 33 33 35 35 37 35 24 28 37 44 44 37 39 38 38 39 36 33
46 40 38 37 37 26 32 33 31 31 29 24 26 27 28 27 24 21 22 21 15 18 20 24 27 25 30 34 35 29 39 39 37 35 33 31 34 37 40 42 41 43 40 39
37 38 40 36 35 33 36 32 32 32 31 25 21 22 23 20 18 16 15 23 21 17 12 8 13 18 24 29 30 28 29 32 34 34 35 37 37 38 42 44 41 46 45 42
25 29 28 25 26 27 25 22 17 17 16 16 16 18 20 19 16 17 20 26 23 16 10 15 11 13 17 20 23 21 25 28 32 28 32 38 37 41 42 46 45 45 49 53
21 20 20 20 21 20 19 18 17 17 15 13 14 15 16 18 20 19 18 22 33 20 10 14 14 13 18 20 24 25 29 29 30 30 33 36 38 38 41 41 43 49 48 47
14 15 18 18 18 18 19 21 19 17 13 12 12 12 12 11 10 11 13 15 23 29 24 20 21 24 22 25 25 25 26 31 31 31 30 30 31 33 34 37 37 38 41 44
20 23 22 20 18 19 19 20 20 20 18 16 13 12 8 6 8 8 4 3 3 7 12 10 12 10 7 4 14 22 25 26 26 23 27 24 28 28 28 29 31 32 34 36

GFSNW_500_spd_060.txt.gz
Wind_Speed
55 52 50 45 43 43 47 48 49 43 45 50 54 55 54 47 40 44 36 38 38 40 36 39 36 37 39 35 31 31 34 35 37 41 39 38 40 41 40 41 38 36 36 29
49 47 44 42 38 39 41 44 42 40 43 50 50 52 47 43 40 41 39 39 40 41 41 41 40 42 39 38 39 41 37 37 32 35 41 46 47 45 44 45 38 38 38 32
48 48 47 39 37 37 39 40 40 39 43 45 46 45 39 39 34 38 40 38 41 45 44 43 45 44 41 42 43 42 41 41 37 35 35 39 42 42 43 42 42 40 39 34
49 50 45 44 40 38 41 41 40 37 44 42 39 38 35 32 29 31 34 36 39 46 51 51 47 47 45 40 38 42 43 44 44 42 39 39 39 37 39 42 40 41 40 39
30 27 30 33 34 36 41 40 36 37 38 37 36 35 31 25 24 27 28 29 32 40 46 52 50 49 49 48 44 38 42 43 41 39 38 36 36 40 41 41 42 43 44 42
28 27 24 23 26 33 38 37 35 36 35 34 35 33 26 24 27 25 25 28 33 35 40 47 54 57 52 51 51 51 48 45 45 45 44 43 39 39 41 41 40 42 44 43
27 25 24 25 27 31 33 33 30 34 32 33 32 31 27 27 26 26 26 27 29 33 36 37 40 48 53 56 50 51 53 51 50 44 38 42 41 43 41 42 42 41 43 43
29 28 28 28 28 26 26 27 27 30 32 30 31 30 27 30 31 30 23 22 27 30 31 32 32 32 35 42 51 55 51 51 52 51 49 46 37 39 45 42 41 40 41 41
31 31 31 30 30 29 26 23 23 30 31 28 28 27 26 29 28 26 21 21 26 27 28 28 28 28 27 25 26 40 60 56 53 50 50 53 49 36 38 46 49 37 41 42
36 36 35 35 34 35 34 30 29 30 29 28 27 24 25 28 27 26 23 20 25 27 28 29 28 26 24 24 23 24 25 36 51 54 58 58 57 50 46 41 45 38 35 41
44 43 41 40 40 40 41 38 36 35 34 30 29 28 27 29 28 26 24 22 24 26 28 30 32 30 29 26 24 23 21 22 24 30 34 32 40 51 56 56 49 42 39 38
43 48 48 47 46 44 45 45 42 41 41 37 34 33 32 31 29 27 26 24 28 30 30 31 32 33 33 32 30 28 26 24 26 26 22 26 33 35 38 46 58 52 38 38
43 44 48 53 52 51 50 48 45 44 45 42 40 36 34 33 32 30 28 30 32 33 32 33 33 34 34 34 34 34 33 31 29 28 25 27 31 41 41 41 52 55 53 44
45 44 46 47 52 53 53 54 51 49 48 48 47 45 41 38 36 36 34 32 35 36 38 36 36 36 36 36 38 39 38 35 32 30 30 31 34 40 44 41 42 53 60 53
40 44 43 44 42 48 53 49 49 50 51 51 50 48 46 43 38 37 36 36 38 39 39 40 40 39 39 41 41 40 39 38 38 36 36 35 35 40 42 44 41 40 46 51
28 30 34 42 36 36 44 52 51 53 51 51 50 45 43 40 39 39 38 39 38 42 44 45 43 41 38 43 42 41 42 41 41 41 41 43 44 42 42 37 37 37 31 26
29 27 26 34 42 36 32 38 40 46 53 53 50 47 42 42 40 40 39 37 38 40 37 41 40 38 39 44 45 43 41 42 44 44 44 42 43 40 36 33 31 46 40 32
24 28 29 31 38 37 32 29 27 27 32 45 49 45 39 39 40 40 36 33 25 26 30 30 32 34 37 36 35 36 33 34 37 39 43 44 41 35 32 27 32 33 44 37
33 32 32 33 38 37 29 30 27 28 29 31 33 30 28 31 32 36 38 35 28 32 39 39 37 34 35 32 33 35 32 31 34 33 35 34 39 46 38 30 28 31 38 34
36 37 37 44 34 32 32 31 28 29 29 25 23 22 19 21 24 34 37 36 32 29 32 33 37 37 37 36 36 35 34 32 32 34 38 39 36 40 44 44 32 32 35 37
36 40 40 33 35 32 31 31 34 33 27 18 12 17 27 24 19 17 20 23 24 25 26 29 30 33 31 34 35 32 36 36 30 31 34 35 30 35 41 41 40 40 39 37
34 39 39 37 31 30 30 34 36 26 22 24 22 33 22 22 16 10 13 19 21 25 26 25 23 22 25 28 31 31 31 34 32 33 39 36 33 29 35 38 42 46 46 41
34 35 33 34 34 30 26 26 28 24 26 25 24 22 18 16 15 14 16 21 23 22 13 9 12 15 20 23 25 26 30 32 34 34 34 36 35 30 31 38 42 40 40 42
38 31 23 27 30 26 22 22 21 23 21 22 20 18 20 21 18 17 17 19 19 23 23 14 13 13 11 12 17 25 26 27 28 32 30 33 36 36 40 40 44 43 44 45
27 22 20 19 18 20 24 25 25 23 20 16 17 17 17 19 19 17 14 17 18 18 19 16 15 14 19 18 16 17 23 24 26 30 32 32 31 33 35 35 39 44 44 43
17 15 19 22 21 20 18 18 19 19 17 15 13 12 13 14 16 16 18 18 16 16 23 26 26 24 27 24 22 24 26 29 30 30 32 35 38 37 36 38 39 40 42 42
15 17 16 17 16 15 16 16 17 14 12 11 12 12 12 12 9 9 9 8 10 13 18 27 34 37 29 28 25 23 27 32 33 34 32 34 34 33 30 30 30 29 30 30

GFSNW_500_spd_063.txt.gz
Wind_Speed
50 51 51 48 49 53 53 51 50 41 44 49 52 54 58 49 41 44 39 33 33 35 37 34 28 27 24 22 24 32 33 38 40 40 40 41 44 43 40 41 42 39 33 30
53 50 49 47 50 52 48 44 40 38 42 46 45 48 49 45 40 39 37 36 37 38 38 36 35 32 29 35 26 30 31 36 34 35 38 38 42 42 41 40 40 40 37 33
52 49 46 47 49 49 48 43 39 36 41 40 39 41 40 39 34 34 35 35 38 40 41 41 38 31 33 33 31 32 29 30 29 32 33 35 38 38 37 38 40 40 40 36
47 46 46 47 48 48 48 48 42 35 36 33 32 35 32 32 30 30 30 33 36 40 47 46 44 42 32 33 35 31 31 33 34 32 30 33 31 32 37 37 38 41 39 41
44 44 43 44 46 46 50 48 42 36 30 31 31 34 34 27 27 27 26 28 32 38 44 47 47 47 45 42 38 38 39 33 36 35 36 33 31 30 31 34 35 36 38 40
39 40 39 35 29 33 37 35 36 36 30 30 23 34 35 25 28 26 27 26 29 33 39 47 47 47 46 45 44 40 37 38 34 37 39 38 38 36 35 34 36 38 39 37
36 35 31 28 27 27 25 25 28 32 30 32 31 28 29 29 29 27 26 24 23 28 34 37 41 48 48 46 47 46 48 40 38 36 36 37 37 36 35 35 35 36 36 37
32 30 28 28 28 28 29 23 22 24 28 28 28 28 30 35 29 26 26 24 23 27 29 29 33 37 44 47 47 48 49 51 52 46 36 37 37 38 38 37 35 37 37 38
26 28 30 30 30 29 29 22 21 21 23 25 20 29 35 32 28 28 23 16 22 22 23 23 25 28 32 35 41 50 49 51 51 52 51 50 43 41 36 35 33 31 37 41
27 29 30 30 30 31 29 22 17 18 19 19 22 29 30 26 23 25 21 21 21 21 21 23 23 25 26 25 25 27 36 41 47 51 51 47 45 43 42 43 48 51 46 42
29 30 31 31 32 32 29 22 19 15 17 19 23 27 25 23 23 24 22 21 20 21 23 22 23 23 23 24 22 23 23 22 25 31 38 44 45 50 50 49 52 52 51 50
26 34 34 34 34 35 34 27 23 23 21 20 22 23 22 22 21 22 22 21 21 20 23 24 24 25 25 25 25 23 22 22 20 17 17 23 23 24 28 26 27 35 45 48
29 30 34 39 38 38 38 33 29 29 26 22 21 21 22 25 22 22 21 18 21 24 23 24 25 26 27 29 28 26 24 23 22 19 19 22 22 22 24 25 25 27 31 34
37 38 36 37 42 41 45 40 35 33 31 28 24 24 24 25 23 20 21 20 22 23 22 23 23 25 26 28 30 30 29 28 27 26 26 25 25 26 27 28 26 28 33 35
33 38 43 39 39 43 42 43 42 40 38 35 30 29 28 29 26 23 24 23 23 23 25 25 25 26 28 29 30 29 30 30 32 33 32 32 30 30 32 33 33 33 34 37
28 34 44 43 39 39 43 40 41 42 41 41 37 33 32 30 28 25 24 25 26 27 27 28 29 30 31 32 32 32 34 35 36 36 36 37 37 37 37 38 38 33 34 39
20 29 35 38 38 36 36 43 35 38 41 41 40 37 35 33 33 31 27 29 30 29 29 29 29 31 33 34 33 32 34 35 36 37 38 41 42 43 43 43 40 41 44 45
26 29 30 34 30 28 28 34 33 33 35 37 41 40 35 31 26 24 27 30 30 30 29 27 30 28 33 38 37 36 36 38 40 40 43 44 45 47 48 49 47 48 44 40
32 29 30 35 32 26 25 28 28 25 29 33 36 34 31 28 27 25 29 31 31 30 28 25 27 30 33 33 33 34 34 34 35 38 40 42 44 46 46 44 44 45 40 40
35 29 30 37 34 29 27 20 23 24 25 27 28 30 27 26 25 25 25 28 30 29 30 32 31 25 28 28 32 35 34 34 37 38 44 40 35 37 37 39 36 39 44 47
35 29 32 38 34 29 23 23 25 23 23 25 25 24 20 14 14 14 20 23 24 29 29 29 27 25 27 27 30 34 38 40 39 37 39 41 36 32 26 29 31 33 34 44
27 34 32 24 23 26 26 22 22 25 25 25 25 25 22 19 15 13 10 15 18 25 24 25 19 17 23 26 30 32 33 33 35 37 34 37 38 32 30 32 30 27 30 36
26 26 27 30 28 27 25 23 32 29 27 30 26 18 23 21 16 11 15 13 15 15 16 19 19 21 26 27 27 27 28 31 35 36 36 36 36 35 33 33 26 28 29 35
30 20 20 22 21 23 26 32 24 23 22 20 24 21 16 18 13 11 9 8 10 15 17 15 18 15 17 18 16 17 21 27 29 29 31 34 33 36 36 33 29 32 32 37
23 25 23 23 29 30 27 27 22 19 19 18 18 13 10 9 9 9 10 10 13 14 14 17 22 24 23 18 20 21 22 20 22 27 33 35 35 31 30 31 33 35 36 36
17 19 17 19 22 24 23 24 21 18 15 14 13 12 11 11 13 12 14 16 16 16 18 20 23 28 29 29 30 29 34 35 30 25 26 28 31 33 36 36 37 37 39 40
12 15 17 21 19 19 21 20 19 18 15 13 13 12 11 10 13 14 16 15 15 16 18 20 21 23 28 33 36 38 38 32 23 26 30 32 34 36 39 38 37 37 38 37

GFSNW_500_spd_066.txt.gz
Wind_Speed
60 54 51 48 47 48 47 48 49 47 46 50 52 51 51 53 47 48 46 38 39 35 40 34 32 26 16 15 24 30 31 36 37 34 42 40 41 42 43 44 43 39 36 30
58 54 51 49 49 49 47 46 45 45 47 47 45 46 44 42 40 39 40 35 40 38 42 41 38 26 26 25 18 24 30 32 33 38 40 43 43 45 44 43 42 44 39 34
55 54 49 48 49 49 49 46 44 44 46 42 40 36 34 34 32 35 36 34 37 39 44 45 42 39 26 26 25 20 24 30 32 33 38 40 39 37 39 40 41 39 37 33
48 48 48 48 48 50 49 45 42 43 42 42 38 35 31 29 24 29 31 33 35 40 46 47 44 40 37 36 23 23 27 22 27 36 34 34 34 34 33 35 36 35 35 36
43 44 46 48 46 46 45 44 42 42 41 39 38 33 26 25 22 23 28 30 33 39 44 46 45 43 41 34 37 27 20 23 22 25 27 29 28 27 25 27 30 34 33 32
38 38 38 38 40 42 42 39 39 42 40 39 37 29 24 24 23 23 25 28 28 35 40 48 48 45 43 43 36 36 34 28 27 25 25 26 27 24 24 24 25 27 28 30
33 35 36 36 36 37 36 31 25 28 25 33 32 27 22 27 25 24 26 26 25 32 37 41 45 49 46 47 43 36 36 35 31 29 26 26 29 28 29 29 26 27 30 31
29 30 31 31 32 33 30 23 18 15 17 27 27 30 30 32 26 28 26 21 23 25 30 34 38 46 48 47 45 45 43 36 40 32 37 33 29 29 29 30 30 31 33 33
24 26 29 30 31 28 24 20 18 15 14 22 27 32 28 32 28 32 21 25 23 25 23 24 28 33 39 43 44 45 45 45 43 46 43 36 35 30 28 30 34 35 36 36
21 25 27 27 28 26 25 23 18 18 13 21 30 30 31 27 28 29 23 19 20 24 20 20 21 24 26 32 36 42 44 44 45 44 46 45 42 44 40 36 35 36 39 41
18 21 23 25 26 27 27 21 16 11 18 26 28 28 32 36 31 26 22 17 22 22 21 20 20 19 20 22 23 24 30 34 38 41 43 47 47 48 49 49 46 46 46 48
18 21 24 26 27 27 27 22 16 17 25 26 28 29 34 36 30 26 20 23 24 23 21 22 22 22 23 24 25 23 21 23 23 24 26 29 29 29 32 37 42 45 47 50
17 18 25 27 28 28 27 23 20 18 28 28 33 33 35 32 25 22 19 24 24 23 21 22 23 22 22 23 23 23 23 21 23 21 21 22 17 15 15 16 18 20 20 22
24 23 22 24 29 29 29 26 24 25 27 28 31 35 28 21 22 22 20 21 22 21 20 19 21 22 21 22 22 23 23 21 21 22 22 22 21 20 20 19 18 20 20 19
27 29 30 27 27 32 31 30 27 25 24 26 25 24 23 26 26 25 22 20 22 21 18 17 18 19 19 20 22 24 25 24 25 25 26 28 28 26 27 26 26 25 27 28
29 29 32 34 31 29 33 33 33 30 26 25 23 23 24 27 30 27 23 23 22 20 18 17 17 18 18 19 20 21 22 24 25 25 27 28 31 32 33 34 35 34 33 34
29 28 31 32 35 31 31 35 32 34 31 28 25 23 21 25 30 26 19 23 23 21 21 19 16 17 19 19 19 19 22 24 26 28 30 34 35 37 38 39 39 40 41 42
29 29 31 28 31 31 28 29 31 31 33 34 30 26 22 23 23 23 23 22 23 23 21 19 20 20 21 21 21 21 22 26 28 31 33 36 38 39 42 44 46 48 49 49
30 28 29 31 30 30 26 24 27 28 30 31 33 30 28 25 25 23 23 23 23 23 23 23 22 23 25 23 22 23 26 29 30 33 35 37 39 40 43 46 47 49 50 50
35 33 34 30 31 28 27 24 27 28 30 32 31 28 25 22 21 20 19 20 22 24 22 24 25 25 25 24 24 27 27 26 27 31 35 37 39 40 42 44 44 38 39 41
36 39 37 30 28 30 28 24 26 28 28 28 25 21 20 19 18 16 18 19 21 21 22 26 27 25 25 26 28 28 29 31 36 39 42 44 44 45 44 44 41 43 40 32
34 32 36 32 26 26 19 22 24 24 23 23 21 19 20 19 18 16 16 18 21 24 25 27 27 23 24 25 26 29 32 34 37 40 41 43 42 42 41 41 40 39 38 33
30 29 31 27 25 23 20 21 22 22 22 24 23 25 24 19 22 17 15 15 13 15 17 19 15 18 21 23 26 28 29 31 34 35 35 37 39 37 36 41 41 38 37 36
26 24 25 26 21 17 19 24 24 25 28 29 32 28 25 22 16 14 13 8 8 11 9 8 12 17 22 23 22 21 23 23 21 24 28 30 33 37 40 40 40 40 40 41
18 21 20 17 19 23 29 24 27 30 27 23 25 23 22 18 11 9 10 11 12 10 9 13 15 17 19 26 29 29 28 28 29 29 28 29 33 33 32 37 39 40 38 36
20 19 23 25 28 26 25 25 26 26 29 25 19 18 17 15 14 13 13 12 11 14 16 18 20 22 24 28 33 35 36 37 38 38 39 42 36 32 33 31 31 34 38 43
19 21 27 29 26 25 24 23 22 20 18 15 13 12 11 9 9 9 12 14 16 18 21 23 25 26 27 28 30 30 30 33 35 36 34 30 27 28 31 33 35 37 38 39

GFSNW_500_spd_069.txt.gz
Wind_Speed
54 56 60 60 58 53 48 46 45 44 44 45 44 42 39 43 41 42 43 41 43 39 36 38 36 33 32 23 18 20 22 38 24 21 38 40 45 45 43 42 29 35 27 24
37 43 54 54 55 51 47 45 43 42 44 42 40 39 39 40 40 39 44 43 43 41 39 40 37 36 33 30 18 15 24 28 37 19 32 36 44 46 36 38 37 28 31 33
23 31 43 47 49 48 46 44 41 39 40 35 36 37 37 38 36 37 40 40 41 41 38 39 41 39 37 34 30 26 21 23 31 34 18 26 40 41 37 35 39 40 35 27
28 31 41 42 44 44 44 42 38 39 38 35 35 36 37 35 32 32 33 35 35 28 34 42 45 42 42 34 25 29 21 18 23 36 37 35 23 30 32 34 36 35 36 38
29 33 37 38 40 42 41 37 35 37 36 35 37 35 34 32 31 29 25 26 27 29 39 43 46 43 46 44 27 33 25 17 21 19 33 38 39 38 35 34 33 34 34 35
24 31 34 37 39 40 38 36 36 37 36 35 35 34 33 31 32 29 26 26 28 31 27 33 41 49 49 50 41 30 32 29 30 19 17 21 25 22 24 25 28 31 28 28
20 27 30 33 35 35 34 33 33 33 29 32 32 33 33 30 30 24 22 22 25 28 29 31 36 47 47 50 48 36 34 37 32 26 21 19 14 20 16 12 13 17 23 24
15 22 27 29 31 31 31 31 29 27 24 28 32 32 29 29 27 27 27 20 27 25 22 24 25 39 46 47 47 44 36 34 31 27 33 22 23 15 16 16 21 22 23 23
16 21 25 27 29 29 27 26 25 24 19 20 24 28 33 27 23 26 26 22 25 19 18 20 24 26 32 43 45 45 44 42 36 37 29 27 22 25 24 28 25 25 24 24
16 18 21 24 26 26 25 23 23 19 13 15 18 26 31 30 25 22 23 28 21 18 20 18 21 21 27 25 39 44 43 40 36 36 34 30 32 28 24 29 28 27 33 34
13 16 21 23 24 24 22 21 20 17 17 20 23 27 31 30 30 22 25 22 15 22 20 17 19 20 18 26 29 32 37 40 39 38 38 38 40 40 38 34 35 36 35 34
14 15 14 17 21 21 21 18 15 16 23 22 24 32 34 29 34 30 26 20 11 21 21 16 17 19 18 22 24 23 24 30 36 36 40 39 38 36 35 39 41 42 44 45
13 16 19 19 20 20 20 19 19 17 23 30 29 29 30 34 32 29 25 21 22 23 19 14 18 16 18 16 20 21 20 19 22 20 22 24 25 30 28 32 36 37 39 39
20 18 20 21 21 22 21 19 19 19 24 23 26 29 30 36 35 30 21 23 25 26 22 17 14 15 18 18 20 22 23 23 23 23 21 22 22 20 19 20 21 20 20 20
26 24 21 21 24 23 22 21 22 25 26 24 28 30 32 37 32 24 19 25 27 26 24 18 12 11 14 20 17 20 22 22 23 23 23 21 21 19 20 20 21 22 23 24
29 27 26 23 22 26 25 24 27 31 27 33 30 31 34 32 24 25 20 25 26 25 20 15 13 12 13 13 15 19 19 22 24 23 24 24 23 25 27 27 27 29 30 32
30 29 28 27 24 20 24 23 22 27 30 34 29 30 28 28 31 29 23 21 22 22 17 15 14 14 15 16 16 18 19 20 22 23 25 26 27 27 29 31 32 34 35 36
31 29 27 26 27 25 24 22 25 28 28 28 26 25 24 30 32 31 28 25 23 21 17 14 14 15 16 16 15 16 18 20 21 24 26 28 29 30 32 34 36 37 39 41
31 31 29 27 28 30 24 24 26 26 27 28 23 22 21 30 34 31 27 25 26 23 19 16 18 19 19 18 14 16 18 21 23 25 26 27 30 33 35 38 40 43 44 45
34 32 29 28 27 27 26 25 26 26 27 28 23 19 16 20 27 31 27 23 21 21 21 22 22 21 21 20 16 18 20 22 23 26 28 31 34 36 37 40 43 45 47 46
31 33 30 28 27 29 30 30 33 33 30 29 25 23 19 17 15 17 20 21 22 22 20 21 21 20 20 21 21 22 24 26 29 31 33 36 38 40 42 44 45 45 46 47
32 27 32 32 32 33 29 30 31 32 29 30 26 24 22 21 20 20 20 21 21 21 20 20 21 20 22 24 26 27 30 32 32 33 35 38 39 40 41 43 44 45 45 44
36 30 32 33 31 25 27 28 25 23 22 22 23 23 23 23 21 19 19 20 20 19 21 22 19 22 24 27 28 29 32 33 31 32 35 36 35 34 36 38 39 40 41 43
33 29 25 23 23 23 23 23 22 21 21 22 25 23 25 23 22 22 20 16 15 16 16 10 12 15 18 21 24 26 27 29 30 26 28 31 29 31 31 33 35 37 37 38
27 24 21 18 16 19 22 22 22 24 27 30 30 29 25 22 19 18 17 15 15 12 9 12 14 16 19 21 24 26 28 29 32 35 36 37 41 44 44 44 43 42 39 39
19 18 17 16 18 22 24 22 22 21 26 32 28 20 24 18 17 14 13 13 10 11 14 16 17 20 22 25 27 29 31 34 38 41 42 42 43 44 45 42 38 35 36 38
15 16 17 22 22 25 27 26 27 27 27 24 22 22 23 18 15 12 11 12 15 17 19 21 23 26 27 28 30 31 33 34 34 34 36 35 34 32 33 33 34 34 33 33

GFSNW_500_spd_075.txt.gz
Wind_Speed
48 44 46 48 43 41 41 39 38 35 42 44 44 39 35 36 36 42 41 41 36 36 34 32 33 36 33 23 22 22 24 19 12 14 18 18 26 29 29 45 43 37 26 29
46 46 46 44 39 34 34 39 42 34 29 31 34 32 33 35 37 36 37 39 37 34 31 32 33 33 33 29 22 25 26 22 15 14 21 21 25 35 29 41 47 36 35 22
46 46 43 39 32 34 35 33 11 13 27 28 18 27 29 32 33 33 33 35 35 34 33 34 33 30 22 21 24 25 25 23 20 13 14 20 18 32 37 48 54 45 38 24
43 42 40 32 31 28 22 26 16 16 28 26 31 23 17 25 28 30 33 32 30 30 32 32 33 32 31 27 25 26 27 24 25 18 23 25 17 27 26 45 48 46 42 31
38 37 31 29 22 18 18 31 23 18 25 28 25 25 25 19 16 21 27 29 29 30 29 29 32 33 33 31 32 29 28 28 27 20 23 31 23 29 33 36 46 39 43 45
33 31 28 21 17 19 18 29 23 32 24 26 28 26 26 28 22 22 23 23 25 27 26 28 28 24 28 24 30 28 32 30 28 23 21 23 27 13 23 38 43 40 41 32
27 25 18 16 11 24 29 28 25 32 22 26 25 24 21 16 25 25 22 24 26 26 21 15 15 14 20 24 26 33 33 28 29 23 14 18 26 20 28 24 34 34 39 35
20 21 10 12 6 14 24 35 30 28 30 30 31 29 24 22 19 20 24 26 21 19 17 16 15 19 22 26 27 36 36 32 31 24 21 17 28 25 26 33 27 38 38 39
16 15 7 7 6 11 20 23 24 24 26 26 28 23 24 23 20 16 19 20 17 19 17 18 18 21 20 19 21 20 30 31 32 26 19 19 18 15 23 33 32 32 32 33
12 13 10 8 9 12 16 19 22 23 21 22 24 24 25 22 20 14 12 13 18 19 18 11 13 13 15 9 5 10 15 31 35 33 23 17 21 23 16 21 33 32 33 35
8 9 9 9 10 11 14 18 20 20 16 21 21 25 26 23 18 17 14 13 14 21 18 9 14 10 17 13 10 7 6 17 34 39 29 20 17 19 16 26 32 31 31 27
5 7 6 8 10 13 14 17 17 17 21 20 19 19 21 25 24 23 16 18 4 20 13 15 16 11 8 10 7 8 5 4 12 25 29 26 20 23 18 34 31 26 31 31
5 4 5 6 10 10 14 18 17 15 15 19 18 16 26 34 38 26 20 8 6 18 20 15 9 13 6 11 11 8 4 7 10 13 21 25 28 27 25 26 27 33 30 27
13 8 4 5 6 11 14 14 16 13 18 20 17 21 25 36 38 24 31 18 10 19 21 12 15 11 11 15 13 14 19 15 18 14 17 18 20 23 31 31 33 31 29 30
18 15 10 6 8 9 12 16 13 15 17 21 18 9 28 37 35 27 21 19 12 21 26 19 15 13 16 10 18 4 21 19 17 28 23 25 17 23 19 19 23 29 27 26
19 21 16 12 11 13 17 17 17 17 19 18 16 13 25 33 33 27 22 16 16 20 19 19 15 13 11 14 20 21 16 14 25 29 20 23 21 17 18 19 20 22 24 25
25 24 23 18 16 16 13 12 16 22 23 19 14 12 19 30 28 32 23 19 17 22 18 20 17 12 11 10 11 18 17 18 24 27 30 31 31 30 23 19 21 23 25 27
28 27 27 23 19 14 14 18 24 28 25 23 17 16 12 20 26 32 27 21 19 24 18 19 15 15 16 13 20 16 19 17 24 23 26 30 32 29 28 28 27 27 29 31
30 29 31 28 21 17 20 22 29 26 24 21 16 18 17 17 28 26 23 16 15 19 18 19 21 18 18 20 19 22 27 22 19 21 23 25 27 28 30 31 31 31 32 32
31 31 33 32 24 23 26 25 28 29 23 18 16 19 15 22 28 24 21 20 18 15 18 15 20 22 21 19 20 21 22 23 23 23 23 23 25 27 29 30 31 33 34 35
35 33 34 31 26 28 30 30 30 28 22 21 16 15 10 12 19 20 18 18 17 13 13 13 13 16 16 15 16 16 18 21 22 24 25 27 28 30 33 34 35 36 38 39
31 34 34 32 29 30 33 31 30 26 25 25 24 19 11 11 19 21 19 17 16 14 14 13 14 11 14 17 19 20 22 24 28 29 31 32 34 35 37 38 40 41 41 40
32 34 34 34 33 29 27 28 30 28 25 26 24 19 17 20 22 22 25 22 22 21 21 19 15 16 18 19 21 23 24 26 29 32 34 36 37 38 38 38 37 37 38 38
31 29 29 30 29 25 20 17 19 20 26 28 23 19 19 20 19 20 22 23 23 25 24 16 19 19 21 22 23 23 21 21 22 23 25 27 29 30 32 35 37 38 38 40
24 23 24 23 22 21 20 20 21 21 22 24 27 22 20 23 19 18 18 18 19 16 13 17 18 19 19 19 18 20 21 22 24 27 30 32 33 34 36 38 41 43 45 47
23 20 19 16 16 17 19 20 20 22 22 21 20 19 18 17 17 17 19 17 11 13 14 14 15 17 19 21 23 26 29 32 34 35 34 34 35 36 37 38 40 40 41 42
19 16 16 16 15 16 17 21 22 21 21 20 18 18 19 18 17 14 11 8 11 10 12 15 19 20 22 24 27 29 30 31 31 30 29 31 33 36 38 41 43 44 45 47

GFSNW_500_spd_081.txt.gz
Wind_Speed
51 50 49 50 52 54 53 53 37 37 38 38 34 31 27 31 29 32 35 39 36 32 29 38 40 39 35 33 31 31 30 27 24 27 30 29 29 27 27 25 24 29 27 23
53 51 51 52 54 52 59 40 35 38 33 28 25 26 28 32 29 32 38 44 46 14 19 36 29 40 34 29 31 28 25 26 27 28 26 27 26 26 24 28 32 36 33 23
53 51 53 56 55 59 45 37 34 30 29 22 21 22 20 28 31 30 39 44 49 30 16 35 37 38 35 36 31 28 24 25 27 28 26 26 25 25 25 25 31 36 40 27
52 52 56 57 57 45 36 35 27 24 14 5 4 21 19 20 26 28 38 41 44 45 20 31 36 36 35 35 31 29 27 27 27 29 29 28 27 25 30 31 27 38 34 34
52 56 60 53 36 33 31 30 18 7 21 11 8 13 4 9 10 24 31 33 39 41 29 28 27 42 42 34 33 32 28 29 30 30 31 27 29 29 31 34 30 39 36 39
54 59 45 28 29 27 27 24 12 29 16 12 19 14 7 10 12 18 24 27 36 43 40 30 32 37 41 41 34 29 28 29 30 28 26 26 26 30 33 39 31 39 39 35
53 37 25 25 24 24 20 14 21 28 21 21 21 12 16 20 16 13 17 23 20 30 33 34 37 40 37 31 26 26 29 30 29 29 25 25 24 23 27 25 37 33 28 30
34 25 23 22 19 19 13 9 28 28 25 14 15 10 12 13 11 15 23 16 15 22 23 26 23 23 24 24 26 27 29 28 28 28 24 22 20 19 16 17 24 32 30 29
26 20 20 16 15 13 11 12 26 24 23 18 14 9 13 10 11 20 27 16 17 13 17 21 21 21 21 24 23 22 24 26 27 26 25 24 21 21 12 18 16 10 24 27
17 17 13 12 11 9 4 13 23 22 22 22 17 17 16 14 18 19 25 25 19 20 20 18 23 22 19 20 18 20 23 26 27 30 32 25 24 24 5 9 15 17 21 24
12 12 10 9 9 7 7 16 25 22 24 26 21 20 23 18 14 15 18 20 19 21 21 15 15 15 15 13 15 17 16 21 26 31 34 27 29 17 4 5 10 13 22 17
8 7 8 7 7 6 10 12 27 26 24 23 21 26 26 23 20 16 17 16 12 11 13 18 15 12 11 10 15 9 6 11 13 24 25 25 31 16 6 14 17 20 20 19
9 6 6 5 5 7 11 10 13 20 24 24 22 25 26 25 25 22 19 20 10 14 14 19 15 11 14 5 5 10 17 15 13 18 16 24 31 17 4 16 11 22 22 26
11 11 8 5 5 8 7 9 14 17 21 21 20 19 20 22 21 26 25 19 13 12 16 21 16 17 12 8 6 7 6 12 8 7 9 19 17 13 10 12 9 9 24 23
12 13 11 7 5 5 8 10 15 16 17 18 21 21 20 21 23 27 27 23 19 15 18 21 13 14 5 8 4 5 5 12 12 14 7 12 11 15 17 15 15 15 17 18
14 15 14 11 6 3 4 9 8 10 15 14 15 17 19 22 26 32 30 21 20 20 15 19 15 15 0 7 4 8 11 17 15 14 15 14 18 22 26 24 19 17 16 20
15 12 12 14 8 3 6 11 13 11 11 10 11 11 14 21 28 32 33 20 16 17 17 20 18 10 3 4 3 4 19 25 22 17 18 20 15 11 10 11 25 21 24 21
20 17 14 14 13 9 10 9 9 8 9 11 13 13 15 22 31 33 27 19 15 14 15 17 13 5 4 3 4 2 2 4 14 13 12 12 13 17 15 14 15 16 19 20
27 26 22 20 18 13 12 12 10 11 8 8 9 9 15 24 33 30 25 20 14 13 14 13 13 7 8 11 6 5 5 6 7 8 9 9 11 12 13 15 17 19 22 24
29 27 27 28 21 18 16 15 11 12 13 14 13 16 24 27 28 26 23 15 10 9 10 11 10 10 10 11 10 8 8 10 12 14 16 17 18 19 20 19 20 22 25 27
28 28 30 27 24 21 20 17 13 16 19 19 13 15 25 28 27 25 20 15 9 6 7 11 11 11 10 12 12 13 14 15 16 17 18 19 21 23 23 24 25 27 28 30
29 25 26 28 24 27 25 15 19 23 25 22 17 18 24 22 12 18 21 14 10 7 8 8 7 6 8 11 14 15 15 17 20 22 21 23 24 26 28 30 32 33 34 36
33 31 31 35 35 32 22 18 27 26 26 25 18 21 22 22 23 18 20 18 11 7 8 5 4 4 7 10 12 16 19 20 21 22 24 26 28 29 30 31 33 34 37 39
36 35 38 37 36 26 13 22 26 26 25 23 20 21 19 21 23 21 18 13 12 13 9 10 11 13 15 16 16 17 17 17 18 19 22 24 26 28 31 33 35 37 39 42
36 37 34 36 24 14 18 26 28 29 27 24 23 22 18 15 12 11 10 10 10 9 9 10 11 11 12 12 14 15 17 19 21 23 25 27 29 32 34 37 38 40 42 42
30 30 27 25 18 19 23 25 26 27 27 25 21 18 16 16 11 8 6 5 4 6 7 8 9 11 12 14 16 19 22 24 26 27 28 29 31 33 34 36 39 41 44 46
28 25 23 21 19 18 19 21 23 23 23 22 20 18 14 9 5 6 7 8 10 9 9 10 11 12 14 17 20 22 24 26 28 30 32 34 35 38 40 42 44 47 49 51

GFSNW_500_spd_084.txt.gz
Wind_Speed
44 47 51 55 58 60 59 56 59 61 63 48 36 35 37 36 34 34 31 30 30 39 35 13 26 36 38 35 35 35 29 29 27 28 30 29 28 28 29 28 26 28 27 20
46 49 54 58 61 60 60 62 62 57 44 35 35 32 29 30 26 31 30 30 31 43 24 26 26 27 33 40 35 32 30 31 28 28 29 28 29 29 29 30 30 30 29 23
47 51 55 60 60 62 65 61 41 34 34 34 27 25 21 18 20 26 30 29 33 47 19 26 18 24 24 25 33 29 29 27 28 27 27 29 28 30 31 32 31 32 33 28
48 51 57 58 60 65 51 34 32 34 31 26 12 13 13 19 13 18 27 26 32 42 23 19 28 18 25 35 27 24 28 26 22 23 27 27 26 28 27 28 29 36 23 30
48 52 55 56 60 46 35 34 34 33 24 12 7 2 11 4 3 11 23 18 31 35 34 21 17 18 20 36 37 31 28 26 25 23 26 26 26 26 27 31 29 32 32 27
47 52 52 55 45 35 34 33 32 26 9 11 9 6 4 10 4 6 16 17 24 28 31 39 28 15 17 27 30 30 30 27 29 26 26 28 26 22 27 30 35 31 32 27
47 48 50 45 35 32 30 29 26 6 18 14 11 6 3 14 7 4 6 13 19 22 26 26 31 18 16 20 26 29 29 30 31 27 26 26 25 23 26 27 29 34 31 32
45 44 44 34 32 27 25 23 14 21 21 17 14 4 12 16 10 20 9 13 13 19 20 23 25 32 33 24 23 24 30 32 31 29 27 24 20 22 22 21 17 28 25 21
40 42 33 27 25 25 18 18 4 21 23 19 11 5 19 13 10 13 16 12 19 15 17 20 21 21 23 20 24 29 30 29 28 25 24 22 15 18 19 15 18 21 9 16
37 32 25 22 21 20 14 12 6 21 25 21 10 11 11 7 10 11 17 12 13 14 16 17 20 21 22 25 27 26 25 25 23 21 23 20 17 16 14 12 14 7 10 13
32 24 18 18 17 16 11 9 7 22 25 21 14 13 13 10 7 7 15 16 11 10 13 16 18 19 19 19 19 21 21 21 15 19 21 22 18 15 16 8 3 12 13 15
24 18 13 11 13 13 10 9 10 18 23 27 20 15 17 15 11 8 9 9 7 9 12 16 13 15 16 15 12 14 10 9 10 17 22 25 21 16 17 12 3 3 21 20
20 17 14 11 11 12 10 7 14 18 19 29 25 21 18 19 14 11 9 14 9 9 15 16 15 10 9 8 8 12 11 11 13 17 14 14 17 22 18 7 5 6 7 8
19 18 15 13 10 10 7 7 14 20 23 25 26 22 18 19 18 16 15 18 11 13 15 17 15 10 15 4 6 9 12 12 9 8 7 7 12 27 20 8 7 8 11 11
19 18 15 12 9 9 6 6 12 15 19 21 20 21 17 19 20 20 26 16 14 14 10 15 17 12 10 3 3 6 6 2 8 8 1 4 8 11 12 9 7 15 16 13
21 19 16 13 8 6 5 4 6 10 11 13 14 18 15 16 17 20 30 23 14 13 7 13 13 13 5 9 8 2 6 4 12 5 7 6 6 10 13 15 15 17 13 17
22 20 17 14 10 6 6 8 14 9 7 9 9 12 15 18 18 22 27 23 19 13 10 11 15 16 0 7 8 14 11 13 11 10 5 11 4 3 2 2 12 19 19 18
22 20 14 11 13 9 6 7 5 7 7 8 11 12 13 17 19 22 25 20 12 12 11 13 18 12 2 2 6 5 5 7 12 13 13 6 5 5 11 16 13 9 10 14
25 23 18 14 11 10 9 9 8 8 8 7 10 15 13 14 20 23 28 20 13 10 12 9 12 5 7 5 8 3 1 2 1 2 1 3 4 7 9 9 10 12 12 14
27 25 23 19 11 15 14 14 11 11 9 8 9 10 11 13 18 22 26 20 10 10 10 10 9 10 5 8 6 3 5 6 7 8 9 11 14 14 13 14 14 15 16 18
30 29 26 20 17 18 19 19 13 8 10 11 10 16 21 17 22 26 22 19 14 6 5 9 10 9 8 10 10 8 8 8 10 10 11 14 16 17 18 19 19 20 23 24
26 24 20 22 22 25 27 20 14 13 16 14 11 19 19 19 24 22 20 15 9 6 5 10 9 8 9 8 7 7 8 10 12 14 16 18 19 19 20 22 25 26 28 30
32 31 26 27 29 32 31 15 9 18 19 15 10 17 19 19 20 19 18 14 9 6 8 11 9 8 8 7 7 9 11 12 15 17 18 19 20 21 22 25 27 29 31 33
32 30 30 31 34 33 17 10 17 25 23 19 13 18 23 21 21 15 16 15 14 12 10 10 10 9 9 10 11 14 13 15 18 19 21 23 25 27 29 30 31 33 35 38
35 32 32 32 31 21 14 13 25 25 24 22 19 18 17 18 17 14 11 13 13 10 10 12 9 9 9 10 13 16 17 19 21 23 24 26 27 28 30 32 34 36 38 40
32 33 32 26 25 21 13 21 28 29 28 25 23 22 18 14 12 11 10 8 6 6 5 5 5 7 10 13 14 16 18 21 23 24 26 29 31 33 36 38 41 43 45 47
28 24 23 21 19 15 20 28 31 31 27 24 20 18 15 9 8 7 8 7 5 2 2 4 8 10 12 14 16 20 22 24 27 30 32 36 38 40 42 45 47 50 52 55

GFSNW_500_spd_087.txt.gz
Wind_Speed
36 38 39 41 45 49 54 58 64 66 69 51 38 34 31 29 30 32 33 31 30 24 24 41 20 20 26 24 30 30 31 30 27 29 28 27 30 30 30 28 30 31 31 22
36 38 39 42 47 50 55 60 62 64 49 42 39 36 33 31 29 30 29 26 24 25 27 39 13 19 26 26 35 30 27 26 24 25 26 26 28 29 30 29 30 29 30 23
35 37 41 44 47 51 55 58 61 50 43 41 37 37 34 27 24 19 22 20 20 23 28 40 20 13 9 27 26 29 27 24 23 24 24 26 27 25 26 28 28 28 27 21
36 38 41 44 47 51 54 57 50 43 41 38 38 21 12 11 7 8 12 12 18 23 28 34 30 20 15 18 34 29 29 24 26 25 26 27 24 23 27 28 27 33 19 26
36 38 42 43 46 50 53 49 43 39 37 35 6 10 10 11 8 7 6 10 18 22 32 30 28 13 13 12 24 36 31 28 24 20 25 29 24 22 25 28 29 31 27 13
35 39 41 42 46 48 48 42 37 34 32 5 13 8 6 8 6 8 2 9 11 18 30 31 22 10 3 10 9 13 17 21 15 15 13 16 21 20 24 27 28 31 26 20
36 39 40 41 43 45 38 35 34 29 4 16 11 5 6 10 5 5 9 7 3 14 17 26 22 12 3 2 1 12 14 18 17 19 17 19 22 20 20 23 25 28 23 20
36 37 37 39 40 35 33 31 26 22 15 15 12 8 3 10 11 16 8 7 6 9 15 17 15 9 12 6 3 4 11 14 15 19 19 20 22 20 20 20 20 24 21 22
35 35 36 35 35 28 26 28 19 9 22 16 10 10 10 7 5 18 9 14 6 4 10 12 12 8 11 12 10 10 11 12 15 20 23 22 17 17 17 17 17 19 17 20
32 33 33 32 27 24 22 23 14 6 24 19 7 11 7 9 6 8 7 10 14 10 11 14 14 13 9 11 13 16 16 16 17 19 20 18 16 14 13 12 13 16 21 25
30 30 29 26 20 18 19 18 11 13 27 21 12 7 3 1 4 4 3 4 5 4 9 13 17 15 13 10 11 13 16 16 18 19 20 13 10 8 7 9 14 15 18 14
28 27 25 20 17 16 17 14 9 5 32 23 19 12 5 6 5 4 3 2 4 5 1 8 11 13 14 13 12 13 15 18 16 16 10 5 7 9 7 12 5 3 5 5
25 23 21 17 16 15 16 13 9 8 12 34 23 18 8 8 9 6 2 4 4 5 3 10 9 9 8 8 9 11 17 14 10 7 4 6 9 11 12 17 7 4 4 4
22 20 17 16 14 13 13 12 10 9 8 17 34 25 15 15 13 11 5 9 7 6 5 8 11 8 7 11 5 9 12 8 8 6 3 7 10 12 21 20 11 2 8 9
19 18 16 16 13 10 11 10 7 8 11 12 17 24 22 20 15 12 13 19 6 5 2 9 13 6 10 1 3 9 8 5 5 4 6 4 1 9 19 19 12 9 10 12
18 16 17 16 13 9 10 8 4 6 7 11 13 16 20 18 15 14 21 19 11 7 3 9 11 6 5 6 3 9 7 3 10 8 1 4 2 4 3 8 5 9 14 17
17 17 18 17 14 11 9 7 5 3 4 5 8 10 14 14 11 13 26 20 14 8 3 8 11 8 5 7 13 10 8 10 15 7 3 4 4 3 4 3 3 6 11 18
19 19 19 17 14 14 8 4 3 7 5 7 7 8 9 14 13 13 25 22 16 10 7 7 10 7 1 5 5 8 9 6 5 7 10 5 5 3 2 4 4 5 7 10
22 21 19 16 12 13 9 6 4 5 6 7 9 11 9 8 12 15 17 24 19 10 7 6 8 8 8 6 8 7 8 7 5 5 5 5 7 3 5 7 6 7 8 9
24 22 21 16 13 15 13 10 6 5 5 7 9 11 14 11 14 15 17 18 11 8 7 8 8 11 5 6 8 5 3 3 4 3 2 4 5 7 10 11 12 12 13 14
26 24 23 18 16 16 17 15 8 6 3 9 8 8 10 11 15 18 24 19 10 7 7 10 10 8 5 6 8 5 3 3 4 5 6 9 11 12 13 15 17 18 20 21
22 22 21 21 20 21 22 19 10 5 4 7 5 13 16 13 19 24 24 18 11 8 10 12 12 9 7 7 7 5 5 5 6 8 10 13 14 17 18 20 22 24 25 25
24 23 23 23 25 26 25 14 3 3 9 8 14 18 14 16 21 20 18 16 10 4 5 11 12 10 9 10 9 8 7 9 11 13 14 15 18 19 21 24 25 27 29 31
26 26 27 27 28 26 15 9 9 11 16 10 11 18 14 20 20 19 17 15 9 8 4 7 11 12 11 10 10 11 11 12 12 13 15 17 19 23 25 26 27 28 30 31
28 28 32 33 28 16 13 13 8 18 20 17 11 16 19 16 15 11 8 8 8 7 8 11 12 10 9 9 10 11 12 13 15 18 21 23 24 26 28 30 32 35 37 40
29 25 26 24 21 18 19 10 11 20 22 17 15 20 14 8 12 10 10 6 7 6 7 8 8 10 10 11 11 11 13 16 20 22 24 26 29 33 35 38 41 44 46 49
30 24 17 20 20 23 17 13 18 21 21 20 19 18 18 13 10 8 8 9 10 9 9 11 11 8 7 8 11 15 19 20 22 25 29 32 36 39 43 46 48 50 53 55